<?xml version="1.0" encoding="UTF-8" standalone="no" ?>
<gpx xmlns="http://www.topografix.com/GPX/1/1" creator="www.cicloide.com" version="1.1" xmlns:xsi="http://www.w3.org/2001/XMLSchema-instance" xsi:schemaLocation="http://www.topografix.com/GPX/1/1 http://www.topografix.com/GPX/1/1/gpx.xsd">
  <trk>
    <name>www.cicloide.com 342012</name>
    <desc>www.cicloide.com 342012</desc>
    <trkseg>
      <trkpt lat="-0.105540000" lon="-78.500090000">
        <ele>2748.00</ele>
        <time>1899-12-29T22:00:00Z</time>
      </trkpt>
      <trkpt lat="-0.105270000" lon="-78.497600000">
        <ele>2726.00</ele>
        <time>-000-11-29T 21:00:0Z</time>
      </trkpt>
      <trkpt lat="-0.104770000" lon="-78.497670000">
        <ele>2724.00</ele>
        <time>-000-11-29T 21:00:0Z</time>
      </trkpt>
      <trkpt lat="-0.103260000" lon="-78.497580000">
        <ele>2717.00</ele>
        <time>-000-11-29T 21:00:0Z</time>
      </trkpt>
      <trkpt lat="-0.102510000" lon="-78.497350000">
        <ele>2712.00</ele>
        <time>-000-11-29T 21:00:0Z</time>
      </trkpt>
      <trkpt lat="-0.101360000" lon="-78.497260000">
        <ele>2713.00</ele>
        <time>-000-11-29T 21:00:0Z</time>
      </trkpt>
      <trkpt lat="-0.100060000" lon="-78.497120000">
        <ele>2706.00</ele>
        <time>-000-11-29T 21:00:0Z</time>
      </trkpt>
      <trkpt lat="-0.098800000" lon="-78.497270000">
        <ele>2694.00</ele>
        <time>-000-11-29T 21:00:0Z</time>
      </trkpt>
      <trkpt lat="-0.097300000" lon="-78.497540000">
        <ele>2693.00</ele>
        <time>-000-11-29T 21:00:0Z</time>
      </trkpt>
      <trkpt lat="-0.096280000" lon="-78.497600000">
        <ele>2685.00</ele>
        <time>-000-11-29T 21:00:0Z</time>
      </trkpt>
      <trkpt lat="-0.095030000" lon="-78.497520000">
        <ele>2681.00</ele>
        <time>-000-11-29T 21:00:0Z</time>
      </trkpt>
      <trkpt lat="-0.094190000" lon="-78.497540000">
        <ele>2686.00</ele>
        <time>-000-11-29T 21:00:0Z</time>
      </trkpt>
      <trkpt lat="-0.093740000" lon="-78.497800000">
        <ele>2691.00</ele>
        <time>-000-11-29T 21:00:0Z</time>
      </trkpt>
      <trkpt lat="-0.093260000" lon="-78.498250000">
        <ele>2703.00</ele>
        <time>-000-11-29T 21:00:0Z</time>
      </trkpt>
      <trkpt lat="-0.092790000" lon="-78.498630000">
        <ele>2713.00</ele>
        <time>-000-11-29T 21:00:0Z</time>
      </trkpt>
      <trkpt lat="-0.092470000" lon="-78.498120000">
        <ele>2719.00</ele>
        <time>-000-11-29T 21:00:0Z</time>
      </trkpt>
      <trkpt lat="-0.091940000" lon="-78.497550000">
        <ele>2725.00</ele>
        <time>-000-11-29T 21:00:0Z</time>
      </trkpt>
      <trkpt lat="-0.091220000" lon="-78.497120000">
        <ele>2738.00</ele>
        <time>-000-11-29T 21:00:0Z</time>
      </trkpt>
      <trkpt lat="-0.090350000" lon="-78.496700000">
        <ele>2747.00</ele>
        <time>-000-11-29T 21:00:0Z</time>
      </trkpt>
      <trkpt lat="-0.090200000" lon="-78.496470000">
        <ele>2747.00</ele>
        <time>-000-11-29T 21:00:0Z</time>
      </trkpt>
      <trkpt lat="-0.090150000" lon="-78.495870000">
        <ele>2744.00</ele>
        <time>-000-11-29T 21:00:0Z</time>
      </trkpt>
      <trkpt lat="-0.090060000" lon="-78.495510000">
        <ele>2742.00</ele>
        <time>-000-11-29T 21:00:0Z</time>
      </trkpt>
      <trkpt lat="-0.089990000" lon="-78.495300000">
        <ele>2742.00</ele>
        <time>-000-11-29T 21:00:0Z</time>
      </trkpt>
      <trkpt lat="-0.089860000" lon="-78.495130000">
        <ele>2741.00</ele>
        <time>-000-11-29T 21:00:0Z</time>
      </trkpt>
      <trkpt lat="-0.089390000" lon="-78.495090000">
        <ele>2741.00</ele>
        <time>-000-11-29T 21:00:0Z</time>
      </trkpt>
      <trkpt lat="-0.088660000" lon="-78.494830000">
        <ele>2745.00</ele>
        <time>-000-11-29T 21:00:0Z</time>
      </trkpt>
      <trkpt lat="-0.087830000" lon="-78.494600000">
        <ele>2743.00</ele>
        <time>-000-11-29T 21:00:0Z</time>
      </trkpt>
      <trkpt lat="-0.087110000" lon="-78.494520000">
        <ele>2739.00</ele>
        <time>-000-11-29T 21:00:0Z</time>
      </trkpt>
      <trkpt lat="-0.086020000" lon="-78.494260000">
        <ele>2726.00</ele>
        <time>-000-11-29T 21:00:0Z</time>
      </trkpt>
      <trkpt lat="-0.085030000" lon="-78.494150000">
        <ele>2722.00</ele>
        <time>-000-11-29T 21:00:0Z</time>
      </trkpt>
      <trkpt lat="-0.084640000" lon="-78.494360000">
        <ele>2725.00</ele>
        <time>-000-11-29T 21:00:0Z</time>
      </trkpt>
      <trkpt lat="-0.084360000" lon="-78.494500000">
        <ele>2727.00</ele>
        <time>-000-11-29T 21:00:0Z</time>
      </trkpt>
      <trkpt lat="-0.083660000" lon="-78.494230000">
        <ele>2719.00</ele>
        <time>-000-11-29T 21:00:0Z</time>
      </trkpt>
      <trkpt lat="-0.083020000" lon="-78.494190000">
        <ele>2714.00</ele>
        <time>-000-11-29T 21:00:0Z</time>
      </trkpt>
      <trkpt lat="-0.082170000" lon="-78.494560000">
        <ele>2710.00</ele>
        <time>-000-11-29T 21:00:0Z</time>
      </trkpt>
      <trkpt lat="-0.081620000" lon="-78.494940000">
        <ele>2700.00</ele>
        <time>-000-11-29T 21:00:0Z</time>
      </trkpt>
      <trkpt lat="-0.080700000" lon="-78.494660000">
        <ele>2665.00</ele>
        <time>-000-11-29T 21:00:0Z</time>
      </trkpt>
      <trkpt lat="-0.080410000" lon="-78.494620000">
        <ele>2654.00</ele>
        <time>-000-11-29T 21:00:0Z</time>
      </trkpt>
      <trkpt lat="-0.080320000" lon="-78.494720000">
        <ele>2649.00</ele>
        <time>-000-11-29T 21:00:0Z</time>
      </trkpt>
      <trkpt lat="-0.080380000" lon="-78.494900000">
        <ele>2645.00</ele>
        <time>-000-11-29T 21:00:0Z</time>
      </trkpt>
      <trkpt lat="-0.080280000" lon="-78.494970000">
        <ele>2645.00</ele>
        <time>-000-11-29T 21:00:0Z</time>
      </trkpt>
      <trkpt lat="-0.080180000" lon="-78.494860000">
        <ele>2646.00</ele>
        <time>-000-11-29T 21:00:0Z</time>
      </trkpt>
      <trkpt lat="-0.080160000" lon="-78.494680000">
        <ele>2646.00</ele>
        <time>-000-11-29T 21:00:0Z</time>
      </trkpt>
      <trkpt lat="-0.080200000" lon="-78.494520000">
        <ele>2647.00</ele>
        <time>-000-11-29T 21:00:0Z</time>
      </trkpt>
      <trkpt lat="-0.080200000" lon="-78.494400000">
        <ele>2647.00</ele>
        <time>-000-11-29T 21:00:0Z</time>
      </trkpt>
      <trkpt lat="-0.080070000" lon="-78.494290000">
        <ele>2647.00</ele>
        <time>-000-11-29T 21:00:0Z</time>
      </trkpt>
      <trkpt lat="-0.079940000" lon="-78.494400000">
        <ele>2647.00</ele>
        <time>-000-11-29T 21:00:0Z</time>
      </trkpt>
      <trkpt lat="-0.079900000" lon="-78.494620000">
        <ele>2646.00</ele>
        <time>-000-11-29T 21:00:0Z</time>
      </trkpt>
      <trkpt lat="-0.079990000" lon="-78.494950000">
        <ele>2646.00</ele>
        <time>-000-11-29T 21:00:0Z</time>
      </trkpt>
      <trkpt lat="-0.080090000" lon="-78.495500000">
        <ele>2653.00</ele>
        <time>-000-11-29T 21:00:0Z</time>
      </trkpt>
      <trkpt lat="-0.080000000" lon="-78.496460000">
        <ele>2675.00</ele>
        <time>-000-11-29T 21:00:0Z</time>
      </trkpt>
      <trkpt lat="-0.079880000" lon="-78.496830000">
        <ele>2687.00</ele>
        <time>-000-11-29T 21:00:0Z</time>
      </trkpt>
      <trkpt lat="-0.079520000" lon="-78.497290000">
        <ele>2698.00</ele>
        <time>-000-11-29T 21:00:0Z</time>
      </trkpt>
      <trkpt lat="-0.079360000" lon="-78.497350000">
        <ele>2701.00</ele>
        <time>-000-11-29T 21:00:0Z</time>
      </trkpt>
      <trkpt lat="-0.079320000" lon="-78.497220000">
        <ele>2704.00</ele>
        <time>-000-11-29T 21:00:0Z</time>
      </trkpt>
      <trkpt lat="-0.079480000" lon="-78.496880000">
        <ele>2707.00</ele>
        <time>-000-11-29T 21:00:0Z</time>
      </trkpt>
      <trkpt lat="-0.079590000" lon="-78.496410000">
        <ele>2712.00</ele>
        <time>-000-11-29T 21:00:0Z</time>
      </trkpt>
      <trkpt lat="-0.079430000" lon="-78.496010000">
        <ele>2704.00</ele>
        <time>-000-11-29T 21:00:0Z</time>
      </trkpt>
      <trkpt lat="-0.079280000" lon="-78.495820000">
        <ele>2700.00</ele>
        <time>-000-11-29T 21:00:0Z</time>
      </trkpt>
      <trkpt lat="-0.079200000" lon="-78.495530000">
        <ele>2694.00</ele>
        <time>-000-11-29T 21:00:0Z</time>
      </trkpt>
      <trkpt lat="-0.079020000" lon="-78.495280000">
        <ele>2688.00</ele>
        <time>-000-11-29T 21:00:0Z</time>
      </trkpt>
      <trkpt lat="-0.078820000" lon="-78.495130000">
        <ele>2684.00</ele>
        <time>-000-11-29T 21:00:0Z</time>
      </trkpt>
      <trkpt lat="-0.078650000" lon="-78.494640000">
        <ele>2674.00</ele>
        <time>-000-11-29T 21:00:0Z</time>
      </trkpt>
      <trkpt lat="-0.078380000" lon="-78.494300000">
        <ele>2665.00</ele>
        <time>-000-11-29T 21:00:0Z</time>
      </trkpt>
      <trkpt lat="-0.078070000" lon="-78.494150000">
        <ele>2665.00</ele>
        <time>-000-11-29T 21:00:0Z</time>
      </trkpt>
      <trkpt lat="-0.077810000" lon="-78.494150000">
        <ele>2676.00</ele>
        <time>-000-11-29T 21:00:0Z</time>
      </trkpt>
      <trkpt lat="-0.077760000" lon="-78.494290000">
        <ele>2682.00</ele>
        <time>-000-11-29T 21:00:0Z</time>
      </trkpt>
      <trkpt lat="-0.077670000" lon="-78.494490000">
        <ele>2692.00</ele>
        <time>-000-11-29T 21:00:0Z</time>
      </trkpt>
      <trkpt lat="-0.077770000" lon="-78.494630000">
        <ele>2699.00</ele>
        <time>-000-11-29T 21:00:0Z</time>
      </trkpt>
      <trkpt lat="-0.077790000" lon="-78.494720000">
        <ele>2700.00</ele>
        <time>-000-11-29T 21:00:0Z</time>
      </trkpt>
      <trkpt lat="-0.077720000" lon="-78.494790000">
        <ele>2701.00</ele>
        <time>-000-11-29T 21:00:0Z</time>
      </trkpt>
      <trkpt lat="-0.077290000" lon="-78.494670000">
        <ele>2708.00</ele>
        <time>-000-11-29T 21:00:0Z</time>
      </trkpt>
      <trkpt lat="-0.077110000" lon="-78.494790000">
        <ele>2711.00</ele>
        <time>-000-11-29T 21:00:0Z</time>
      </trkpt>
      <trkpt lat="-0.077630000" lon="-78.495110000">
        <ele>2739.00</ele>
        <time>-000-11-29T 21:00:0Z</time>
      </trkpt>
      <trkpt lat="-0.077930000" lon="-78.495370000">
        <ele>2754.00</ele>
        <time>-000-11-29T 21:00:0Z</time>
      </trkpt>
      <trkpt lat="-0.077960000" lon="-78.495640000">
        <ele>2752.00</ele>
        <time>-000-11-29T 21:00:0Z</time>
      </trkpt>
      <trkpt lat="-0.078070000" lon="-78.495760000">
        <ele>2751.00</ele>
        <time>-000-11-29T 21:00:0Z</time>
      </trkpt>
      <trkpt lat="-0.078310000" lon="-78.495910000">
        <ele>2748.00</ele>
        <time>-000-11-29T 21:00:0Z</time>
      </trkpt>
      <trkpt lat="-0.078480000" lon="-78.496170000">
        <ele>2751.00</ele>
        <time>-000-11-29T 21:00:0Z</time>
      </trkpt>
      <trkpt lat="-0.078190000" lon="-78.496970000">
        <ele>2761.00</ele>
        <time>-000-11-29T 21:00:0Z</time>
      </trkpt>
      <trkpt lat="-0.077850000" lon="-78.497410000">
        <ele>2758.00</ele>
        <time>-000-11-29T 21:00:0Z</time>
      </trkpt>
      <trkpt lat="-0.077560000" lon="-78.497950000">
        <ele>2759.00</ele>
        <time>-000-11-29T 21:00:0Z</time>
      </trkpt>
      <trkpt lat="-0.077230000" lon="-78.498070000">
        <ele>2761.00</ele>
        <time>-000-11-29T 21:00:0Z</time>
      </trkpt>
      <trkpt lat="-0.077380000" lon="-78.497820000">
        <ele>2762.00</ele>
        <time>-000-11-29T 21:00:0Z</time>
      </trkpt>
      <trkpt lat="-0.077460000" lon="-78.497520000">
        <ele>2763.00</ele>
        <time>-000-11-29T 21:00:0Z</time>
      </trkpt>
      <trkpt lat="-0.077500000" lon="-78.497190000">
        <ele>2764.00</ele>
        <time>-000-11-29T 21:00:0Z</time>
      </trkpt>
      <trkpt lat="-0.077480000" lon="-78.496780000">
        <ele>2773.00</ele>
        <time>-000-11-29T 21:00:0Z</time>
      </trkpt>
      <trkpt lat="-0.077150000" lon="-78.496460000">
        <ele>2785.00</ele>
        <time>-000-11-29T 21:00:0Z</time>
      </trkpt>
      <trkpt lat="-0.076710000" lon="-78.496320000">
        <ele>2789.00</ele>
        <time>-000-11-29T 21:00:0Z</time>
      </trkpt>
      <trkpt lat="-0.076280000" lon="-78.496510000">
        <ele>2792.00</ele>
        <time>-000-11-29T 21:00:0Z</time>
      </trkpt>
      <trkpt lat="-0.075950000" lon="-78.496650000">
        <ele>2796.00</ele>
        <time>-000-11-29T 21:00:0Z</time>
      </trkpt>
      <trkpt lat="-0.074620000" lon="-78.497160000">
        <ele>2807.00</ele>
        <time>-000-11-29T 21:00:0Z</time>
      </trkpt>
      <trkpt lat="-0.074300000" lon="-78.497300000">
        <ele>2809.00</ele>
        <time>-000-11-29T 21:00:0Z</time>
      </trkpt>
      <trkpt lat="-0.073850000" lon="-78.497260000">
        <ele>2811.00</ele>
        <time>-000-11-29T 21:00:0Z</time>
      </trkpt>
      <trkpt lat="-0.073340000" lon="-78.497480000">
        <ele>2821.00</ele>
        <time>-000-11-29T 21:00:0Z</time>
      </trkpt>
      <trkpt lat="-0.072170000" lon="-78.498180000">
        <ele>2870.00</ele>
        <time>-000-11-29T 21:00:0Z</time>
      </trkpt>
      <trkpt lat="-0.071800000" lon="-78.498210000">
        <ele>2883.00</ele>
        <time>-000-11-29T 21:00:0Z</time>
      </trkpt>
      <trkpt lat="-0.071410000" lon="-78.497800000">
        <ele>2904.00</ele>
        <time>-000-11-29T 21:00:0Z</time>
      </trkpt>
      <trkpt lat="-0.070720000" lon="-78.497260000">
        <ele>2900.00</ele>
        <time>-000-11-29T 21:00:0Z</time>
      </trkpt>
      <trkpt lat="-0.070080000" lon="-78.497060000">
        <ele>2929.00</ele>
        <time>-000-11-29T 21:00:0Z</time>
      </trkpt>
      <trkpt lat="-0.069730000" lon="-78.497060000">
        <ele>2941.00</ele>
        <time>-000-11-29T 21:00:0Z</time>
      </trkpt>
      <trkpt lat="-0.069590000" lon="-78.496900000">
        <ele>2939.00</ele>
        <time>-000-11-29T 21:00:0Z</time>
      </trkpt>
      <trkpt lat="-0.069390000" lon="-78.496700000">
        <ele>2936.00</ele>
        <time>-000-11-29T 21:00:0Z</time>
      </trkpt>
      <trkpt lat="-0.069280000" lon="-78.496580000">
        <ele>2935.00</ele>
        <time>-000-11-29T 21:00:0Z</time>
      </trkpt>
      <trkpt lat="-0.069280000" lon="-78.496760000">
        <ele>2934.00</ele>
        <time>-000-11-29T 21:00:0Z</time>
      </trkpt>
      <trkpt lat="-0.069410000" lon="-78.496890000">
        <ele>2936.00</ele>
        <time>-000-11-29T 21:00:0Z</time>
      </trkpt>
      <trkpt lat="-0.069440000" lon="-78.497080000">
        <ele>2938.00</ele>
        <time>-000-11-29T 21:00:0Z</time>
      </trkpt>
      <trkpt lat="-0.069710000" lon="-78.497380000">
        <ele>2943.00</ele>
        <time>-000-11-29T 21:00:0Z</time>
      </trkpt>
      <trkpt lat="-0.069970000" lon="-78.497680000">
        <ele>2942.00</ele>
        <time>-000-11-29T 21:00:0Z</time>
      </trkpt>
      <trkpt lat="-0.070020000" lon="-78.497880000">
        <ele>2939.00</ele>
        <time>-000-11-29T 21:00:0Z</time>
      </trkpt>
      <trkpt lat="-0.070080000" lon="-78.498290000">
        <ele>2936.00</ele>
        <time>-000-11-29T 21:00:0Z</time>
      </trkpt>
      <trkpt lat="-0.070010000" lon="-78.498750000">
        <ele>2950.00</ele>
        <time>-000-11-29T 21:00:0Z</time>
      </trkpt>
      <trkpt lat="-0.069890000" lon="-78.499020000">
        <ele>2959.00</ele>
        <time>-000-11-29T 21:00:0Z</time>
      </trkpt>
      <trkpt lat="-0.069810000" lon="-78.499330000">
        <ele>2965.00</ele>
        <time>-000-11-29T 21:00:0Z</time>
      </trkpt>
      <trkpt lat="-0.069770000" lon="-78.499750000">
        <ele>2970.00</ele>
        <time>-000-11-29T 21:00:0Z</time>
      </trkpt>
      <trkpt lat="-0.069560000" lon="-78.500040000">
        <ele>2973.00</ele>
        <time>-000-11-29T 21:00:0Z</time>
      </trkpt>
      <trkpt lat="-0.069310000" lon="-78.500280000">
        <ele>2969.00</ele>
        <time>-000-11-29T 21:00:0Z</time>
      </trkpt>
      <trkpt lat="-0.069070000" lon="-78.500510000">
        <ele>2966.00</ele>
        <time>-000-11-29T 21:00:0Z</time>
      </trkpt>
      <trkpt lat="-0.068810000" lon="-78.500870000">
        <ele>2960.00</ele>
        <time>-000-11-29T 21:00:0Z</time>
      </trkpt>
      <trkpt lat="-0.068610000" lon="-78.501100000">
        <ele>2955.00</ele>
        <time>-000-11-29T 21:00:0Z</time>
      </trkpt>
      <trkpt lat="-0.068280000" lon="-78.501200000">
        <ele>2951.00</ele>
        <time>-000-11-29T 21:00:0Z</time>
      </trkpt>
      <trkpt lat="-0.068030000" lon="-78.501130000">
        <ele>2955.00</ele>
        <time>-000-11-29T 21:00:0Z</time>
      </trkpt>
      <trkpt lat="-0.067580000" lon="-78.501230000">
        <ele>2962.00</ele>
        <time>-000-11-29T 21:00:0Z</time>
      </trkpt>
      <trkpt lat="-0.067300000" lon="-78.501440000">
        <ele>2965.00</ele>
        <time>-000-11-29T 21:00:0Z</time>
      </trkpt>
      <trkpt lat="-0.067070000" lon="-78.501620000">
        <ele>2967.00</ele>
        <time>-000-11-29T 21:00:0Z</time>
      </trkpt>
      <trkpt lat="-0.066840000" lon="-78.501680000">
        <ele>2969.00</ele>
        <time>-000-11-29T 21:00:0Z</time>
      </trkpt>
      <trkpt lat="-0.066660000" lon="-78.501530000">
        <ele>2972.00</ele>
        <time>-000-11-29T 21:00:0Z</time>
      </trkpt>
      <trkpt lat="-0.065970000" lon="-78.500970000">
        <ele>2992.00</ele>
        <time>-000-11-29T 21:00:0Z</time>
      </trkpt>
      <trkpt lat="-0.065460000" lon="-78.501050000">
        <ele>2996.00</ele>
        <time>-000-11-29T 21:00:0Z</time>
      </trkpt>
      <trkpt lat="-0.065070000" lon="-78.501370000">
        <ele>2998.00</ele>
        <time>-000-11-29T 21:00:0Z</time>
      </trkpt>
      <trkpt lat="-0.064470000" lon="-78.501700000">
        <ele>2998.00</ele>
        <time>-000-11-29T 21:00:0Z</time>
      </trkpt>
      <trkpt lat="-0.064130000" lon="-78.501640000">
        <ele>3005.00</ele>
        <time>-000-11-29T 21:00:0Z</time>
      </trkpt>
      <trkpt lat="-0.063910000" lon="-78.501460000">
        <ele>3012.00</ele>
        <time>-000-11-29T 21:00:0Z</time>
      </trkpt>
      <trkpt lat="-0.063520000" lon="-78.501130000">
        <ele>3022.00</ele>
        <time>-000-11-29T 21:00:0Z</time>
      </trkpt>
      <trkpt lat="-0.063110000" lon="-78.500860000">
        <ele>3029.00</ele>
        <time>-000-11-29T 21:00:0Z</time>
      </trkpt>
      <trkpt lat="-0.062600000" lon="-78.500370000">
        <ele>3030.00</ele>
        <time>-000-11-29T 21:00:0Z</time>
      </trkpt>
      <trkpt lat="-0.062390000" lon="-78.500060000">
        <ele>3030.00</ele>
        <time>-000-11-29T 21:00:0Z</time>
      </trkpt>
      <trkpt lat="-0.062200000" lon="-78.499670000">
        <ele>3034.00</ele>
        <time>-000-11-29T 21:00:0Z</time>
      </trkpt>
      <trkpt lat="-0.061860000" lon="-78.499320000">
        <ele>3039.00</ele>
        <time>-000-11-29T 21:00:0Z</time>
      </trkpt>
      <trkpt lat="-0.061390000" lon="-78.499130000">
        <ele>3046.00</ele>
        <time>-000-11-29T 21:00:0Z</time>
      </trkpt>
      <trkpt lat="-0.060440000" lon="-78.498620000">
        <ele>3065.00</ele>
        <time>-000-11-29T 21:00:0Z</time>
      </trkpt>
      <trkpt lat="-0.059500000" lon="-78.498010000">
        <ele>3079.00</ele>
        <time>-000-11-29T 21:00:0Z</time>
      </trkpt>
      <trkpt lat="-0.059090000" lon="-78.497750000">
        <ele>3089.00</ele>
        <time>-000-11-29T 21:00:0Z</time>
      </trkpt>
      <trkpt lat="-0.058600000" lon="-78.497650000">
        <ele>3098.00</ele>
        <time>-000-11-29T 21:00:0Z</time>
      </trkpt>
      <trkpt lat="-0.058160000" lon="-78.497480000">
        <ele>3106.00</ele>
        <time>-000-11-29T 21:00:0Z</time>
      </trkpt>
      <trkpt lat="-0.057590000" lon="-78.497160000">
        <ele>3119.00</ele>
        <time>-000-11-29T 21:00:0Z</time>
      </trkpt>
      <trkpt lat="-0.056650000" lon="-78.496680000">
        <ele>3140.00</ele>
        <time>-000-11-29T 21:00:0Z</time>
      </trkpt>
      <trkpt lat="-0.056050000" lon="-78.496310000">
        <ele>3152.00</ele>
        <time>-000-11-29T 21:00:0Z</time>
      </trkpt>
      <trkpt lat="-0.054810000" lon="-78.495710000">
        <ele>3153.00</ele>
        <time>-000-11-29T 21:00:0Z</time>
      </trkpt>
      <trkpt lat="-0.053890000" lon="-78.495300000">
        <ele>3179.00</ele>
        <time>-000-11-29T 21:00:0Z</time>
      </trkpt>
      <trkpt lat="-0.053390000" lon="-78.495130000">
        <ele>3173.00</ele>
        <time>-000-11-29T 21:00:0Z</time>
      </trkpt>
      <trkpt lat="-0.053040000" lon="-78.494910000">
        <ele>3171.00</ele>
        <time>-000-11-29T 21:00:0Z</time>
      </trkpt>
      <trkpt lat="-0.052610000" lon="-78.494630000">
        <ele>3185.00</ele>
        <time>-000-11-29T 21:00:0Z</time>
      </trkpt>
      <trkpt lat="-0.052260000" lon="-78.494550000">
        <ele>3195.00</ele>
        <time>-000-11-29T 21:00:0Z</time>
      </trkpt>
      <trkpt lat="-0.051930000" lon="-78.494500000">
        <ele>3204.00</ele>
        <time>-000-11-29T 21:00:0Z</time>
      </trkpt>
      <trkpt lat="-0.051570000" lon="-78.494300000">
        <ele>3216.00</ele>
        <time>-000-11-29T 21:00:0Z</time>
      </trkpt>
      <trkpt lat="-0.051250000" lon="-78.494170000">
        <ele>3221.00</ele>
        <time>-000-11-29T 21:00:0Z</time>
      </trkpt>
      <trkpt lat="-0.051030000" lon="-78.493840000">
        <ele>3224.00</ele>
        <time>-000-11-29T 21:00:0Z</time>
      </trkpt>
      <trkpt lat="-0.050840000" lon="-78.493510000">
        <ele>3228.00</ele>
        <time>-000-11-29T 21:00:0Z</time>
      </trkpt>
      <trkpt lat="-0.050670000" lon="-78.493120000">
        <ele>3232.00</ele>
        <time>-000-11-29T 21:00:0Z</time>
      </trkpt>
      <trkpt lat="-0.050660000" lon="-78.492850000">
        <ele>3235.00</ele>
        <time>-000-11-29T 21:00:0Z</time>
      </trkpt>
      <trkpt lat="-0.050740000" lon="-78.492670000">
        <ele>3235.00</ele>
        <time>-000-11-29T 21:00:0Z</time>
      </trkpt>
      <trkpt lat="-0.050800000" lon="-78.492520000">
        <ele>3235.00</ele>
        <time>-000-11-29T 21:00:0Z</time>
      </trkpt>
      <trkpt lat="-0.050740000" lon="-78.492290000">
        <ele>3234.00</ele>
        <time>-000-11-29T 21:00:0Z</time>
      </trkpt>
      <trkpt lat="-0.050720000" lon="-78.492110000">
        <ele>3234.00</ele>
        <time>-000-11-29T 21:00:0Z</time>
      </trkpt>
      <trkpt lat="-0.050670000" lon="-78.491850000">
        <ele>3235.00</ele>
        <time>-000-11-29T 21:00:0Z</time>
      </trkpt>
      <trkpt lat="-0.050550000" lon="-78.491620000">
        <ele>3240.00</ele>
        <time>-000-11-29T 21:00:0Z</time>
      </trkpt>
      <trkpt lat="-0.050520000" lon="-78.491310000">
        <ele>3247.00</ele>
        <time>-000-11-29T 21:00:0Z</time>
      </trkpt>
      <trkpt lat="-0.050560000" lon="-78.491080000">
        <ele>3252.00</ele>
        <time>-000-11-29T 21:00:0Z</time>
      </trkpt>
      <trkpt lat="-0.050590000" lon="-78.490750000">
        <ele>3254.00</ele>
        <time>-000-11-29T 21:00:0Z</time>
      </trkpt>
      <trkpt lat="-0.050430000" lon="-78.490520000">
        <ele>3256.00</ele>
        <time>-000-11-29T 21:00:0Z</time>
      </trkpt>
      <trkpt lat="-0.050450000" lon="-78.490810000">
        <ele>3258.00</ele>
        <time>-000-11-29T 21:00:0Z</time>
      </trkpt>
      <trkpt lat="-0.050320000" lon="-78.491070000">
        <ele>3257.00</ele>
        <time>-000-11-29T 21:00:0Z</time>
      </trkpt>
      <trkpt lat="-0.050230000" lon="-78.491280000">
        <ele>3255.00</ele>
        <time>-000-11-29T 21:00:0Z</time>
      </trkpt>
      <trkpt lat="-0.050170000" lon="-78.491550000">
        <ele>3253.00</ele>
        <time>-000-11-29T 21:00:0Z</time>
      </trkpt>
      <trkpt lat="-0.050130000" lon="-78.491770000">
        <ele>3252.00</ele>
        <time>-000-11-29T 21:00:0Z</time>
      </trkpt>
      <trkpt lat="-0.049890000" lon="-78.491960000">
        <ele>3256.00</ele>
        <time>-000-11-29T 21:00:0Z</time>
      </trkpt>
      <trkpt lat="-0.049760000" lon="-78.492060000">
        <ele>3258.00</ele>
        <time>-000-11-29T 21:00:0Z</time>
      </trkpt>
      <trkpt lat="-0.049780000" lon="-78.491820000">
        <ele>3260.00</ele>
        <time>-000-11-29T 21:00:0Z</time>
      </trkpt>
      <trkpt lat="-0.049860000" lon="-78.491600000">
        <ele>3260.00</ele>
        <time>-000-11-29T 21:00:0Z</time>
      </trkpt>
      <trkpt lat="-0.049850000" lon="-78.491060000">
        <ele>3254.00</ele>
        <time>-000-11-29T 21:00:0Z</time>
      </trkpt>
      <trkpt lat="-0.049850000" lon="-78.490810000">
        <ele>3251.00</ele>
        <time>-000-11-29T 21:00:0Z</time>
      </trkpt>
      <trkpt lat="-0.049730000" lon="-78.490610000">
        <ele>3249.00</ele>
        <time>-000-11-29T 21:00:0Z</time>
      </trkpt>
      <trkpt lat="-0.049440000" lon="-78.490410000">
        <ele>3246.00</ele>
        <time>-000-11-29T 21:00:0Z</time>
      </trkpt>
      <trkpt lat="-0.048990000" lon="-78.490230000">
        <ele>3236.00</ele>
        <time>-000-11-29T 21:00:0Z</time>
      </trkpt>
      <trkpt lat="-0.048780000" lon="-78.490130000">
        <ele>3227.00</ele>
        <time>-000-11-29T 21:00:0Z</time>
      </trkpt>
      <trkpt lat="-0.048640000" lon="-78.489990000">
        <ele>3220.00</ele>
        <time>-000-11-29T 21:00:0Z</time>
      </trkpt>
      <trkpt lat="-0.048490000" lon="-78.489740000">
        <ele>3210.00</ele>
        <time>-000-11-29T 21:00:0Z</time>
      </trkpt>
      <trkpt lat="-0.048250000" lon="-78.489320000">
        <ele>3221.00</ele>
        <time>-000-11-29T 21:00:0Z</time>
      </trkpt>
      <trkpt lat="-0.048070000" lon="-78.489170000">
        <ele>3227.00</ele>
        <time>-000-11-29T 21:00:0Z</time>
      </trkpt>
      <trkpt lat="-0.047880000" lon="-78.489100000">
        <ele>3230.00</ele>
        <time>-000-11-29T 21:00:0Z</time>
      </trkpt>
      <trkpt lat="-0.047770000" lon="-78.488880000">
        <ele>3228.00</ele>
        <time>-000-11-29T 21:00:0Z</time>
      </trkpt>
      <trkpt lat="-0.047570000" lon="-78.488700000">
        <ele>3225.00</ele>
        <time>-000-11-29T 21:00:0Z</time>
      </trkpt>
      <trkpt lat="-0.047200000" lon="-78.488430000">
        <ele>3222.00</ele>
        <time>-000-11-29T 21:00:0Z</time>
      </trkpt>
      <trkpt lat="-0.046770000" lon="-78.488110000">
        <ele>3226.00</ele>
        <time>-000-11-29T 21:00:0Z</time>
      </trkpt>
      <trkpt lat="-0.046530000" lon="-78.487900000">
        <ele>3227.00</ele>
        <time>-000-11-29T 21:00:0Z</time>
      </trkpt>
      <trkpt lat="-0.046380000" lon="-78.487550000">
        <ele>3224.00</ele>
        <time>-000-11-29T 21:00:0Z</time>
      </trkpt>
      <trkpt lat="-0.046180000" lon="-78.487300000">
        <ele>3222.00</ele>
        <time>-000-11-29T 21:00:0Z</time>
      </trkpt>
      <trkpt lat="-0.046090000" lon="-78.487200000">
        <ele>3222.00</ele>
        <time>-000-11-29T 21:00:0Z</time>
      </trkpt>
      <trkpt lat="-0.046250000" lon="-78.487010000">
        <ele>3240.00</ele>
        <time>-000-11-29T 21:00:0Z</time>
      </trkpt>
      <trkpt lat="-0.046590000" lon="-78.486640000">
        <ele>3276.00</ele>
        <time>-000-11-29T 21:00:0Z</time>
      </trkpt>
      <trkpt lat="-0.046890000" lon="-78.486160000">
        <ele>3284.00</ele>
        <time>-000-11-29T 21:00:0Z</time>
      </trkpt>
      <trkpt lat="-0.047060000" lon="-78.485850000">
        <ele>3282.00</ele>
        <time>-000-11-29T 21:00:0Z</time>
      </trkpt>
      <trkpt lat="-0.046890000" lon="-78.485320000">
        <ele>3290.00</ele>
        <time>-000-11-29T 21:00:0Z</time>
      </trkpt>
      <trkpt lat="-0.046810000" lon="-78.485020000">
        <ele>3296.00</ele>
        <time>-000-11-29T 21:00:0Z</time>
      </trkpt>
      <trkpt lat="-0.046970000" lon="-78.485330000">
        <ele>3299.00</ele>
        <time>-000-11-29T 21:00:0Z</time>
      </trkpt>
      <trkpt lat="-0.047140000" lon="-78.485450000">
        <ele>3300.00</ele>
        <time>-000-11-29T 21:00:0Z</time>
      </trkpt>
      <trkpt lat="-0.047240000" lon="-78.485620000">
        <ele>3301.00</ele>
        <time>-000-11-29T 21:00:0Z</time>
      </trkpt>
      <trkpt lat="-0.047320000" lon="-78.485790000">
        <ele>3302.00</ele>
        <time>-000-11-29T 21:00:0Z</time>
      </trkpt>
      <trkpt lat="-0.047360000" lon="-78.486020000">
        <ele>3307.00</ele>
        <time>-000-11-29T 21:00:0Z</time>
      </trkpt>
      <trkpt lat="-0.047350000" lon="-78.486280000">
        <ele>3316.00</ele>
        <time>-000-11-29T 21:00:0Z</time>
      </trkpt>
      <trkpt lat="-0.047340000" lon="-78.486450000">
        <ele>3322.00</ele>
        <time>-000-11-29T 21:00:0Z</time>
      </trkpt>
      <trkpt lat="-0.047420000" lon="-78.486530000">
        <ele>3326.00</ele>
        <time>-000-11-29T 21:00:0Z</time>
      </trkpt>
      <trkpt lat="-0.047690000" lon="-78.486530000">
        <ele>3336.00</ele>
        <time>-000-11-29T 21:00:0Z</time>
      </trkpt>
      <trkpt lat="-0.048100000" lon="-78.486340000">
        <ele>3360.00</ele>
        <time>-000-11-29T 21:00:0Z</time>
      </trkpt>
      <trkpt lat="-0.048310000" lon="-78.486120000">
        <ele>3376.00</ele>
        <time>-000-11-29T 21:00:0Z</time>
      </trkpt>
      <trkpt lat="-0.048430000" lon="-78.485930000">
        <ele>3375.00</ele>
        <time>-000-11-29T 21:00:0Z</time>
      </trkpt>
      <trkpt lat="-0.048470000" lon="-78.485750000">
        <ele>3365.00</ele>
        <time>-000-11-29T 21:00:0Z</time>
      </trkpt>
      <trkpt lat="-0.047900000" lon="-78.485120000">
        <ele>3342.00</ele>
        <time>-000-11-29T 21:00:0Z</time>
      </trkpt>
      <trkpt lat="-0.046720000" lon="-78.483800000">
        <ele>3385.00</ele>
        <time>-000-11-29T 21:00:0Z</time>
      </trkpt>
      <trkpt lat="-0.045930000" lon="-78.482940000">
        <ele>3388.00</ele>
        <time>-000-11-29T 21:00:0Z</time>
      </trkpt>
      <trkpt lat="-0.044030000" lon="-78.481900000">
        <ele>3395.00</ele>
        <time>-000-11-29T 21:00:0Z</time>
      </trkpt>
      <trkpt lat="-0.044020000" lon="-78.481730000">
        <ele>3399.00</ele>
        <time>-000-11-29T 21:00:0Z</time>
      </trkpt>
      <trkpt lat="-0.043530000" lon="-78.481550000">
        <ele>3413.00</ele>
        <time>-000-11-29T 21:00:0Z</time>
      </trkpt>
      <trkpt lat="-0.043120000" lon="-78.481230000">
        <ele>3421.00</ele>
        <time>-000-11-29T 21:00:0Z</time>
      </trkpt>
      <trkpt lat="-0.042450000" lon="-78.480800000">
        <ele>3423.00</ele>
        <time>-000-11-29T 21:00:0Z</time>
      </trkpt>
      <trkpt lat="-0.042160000" lon="-78.480500000">
        <ele>3422.00</ele>
        <time>-000-11-29T 21:00:0Z</time>
      </trkpt>
      <trkpt lat="-0.041760000" lon="-78.480240000">
        <ele>3424.00</ele>
        <time>-000-11-29T 21:00:0Z</time>
      </trkpt>
      <trkpt lat="-0.040800000" lon="-78.480050000">
        <ele>3444.00</ele>
        <time>-000-11-29T 21:00:0Z</time>
      </trkpt>
      <trkpt lat="-0.040310000" lon="-78.479900000">
        <ele>3463.00</ele>
        <time>-000-11-29T 21:00:0Z</time>
      </trkpt>
      <trkpt lat="-0.039680000" lon="-78.479440000">
        <ele>3469.00</ele>
        <time>-000-11-29T 21:00:0Z</time>
      </trkpt>
      <trkpt lat="-0.039240000" lon="-78.479120000">
        <ele>3472.00</ele>
        <time>-000-11-29T 21:00:0Z</time>
      </trkpt>
      <trkpt lat="-0.038540000" lon="-78.478980000">
        <ele>3478.00</ele>
        <time>-000-11-29T 21:00:0Z</time>
      </trkpt>
      <trkpt lat="-0.038220000" lon="-78.478880000">
        <ele>3478.00</ele>
        <time>-000-11-29T 21:00:0Z</time>
      </trkpt>
      <trkpt lat="-0.037960000" lon="-78.478580000">
        <ele>3478.00</ele>
        <time>-000-11-29T 21:00:0Z</time>
      </trkpt>
      <trkpt lat="-0.037320000" lon="-78.478170000">
        <ele>3464.00</ele>
        <time>-000-11-29T 21:00:0Z</time>
      </trkpt>
      <trkpt lat="-0.037060000" lon="-78.477990000">
        <ele>3461.00</ele>
        <time>-000-11-29T 21:00:0Z</time>
      </trkpt>
      <trkpt lat="-0.036710000" lon="-78.477990000">
        <ele>3463.00</ele>
        <time>-000-11-29T 21:00:0Z</time>
      </trkpt>
      <trkpt lat="-0.036360000" lon="-78.477730000">
        <ele>3465.00</ele>
        <time>-000-11-29T 21:00:0Z</time>
      </trkpt>
      <trkpt lat="-0.035390000" lon="-78.477410000">
        <ele>3447.00</ele>
        <time>-000-11-29T 21:00:0Z</time>
      </trkpt>
      <trkpt lat="-0.034610000" lon="-78.477170000">
        <ele>3454.00</ele>
        <time>-000-11-29T 21:00:0Z</time>
      </trkpt>
      <trkpt lat="-0.033940000" lon="-78.477020000">
        <ele>3451.00</ele>
        <time>-000-11-29T 21:00:0Z</time>
      </trkpt>
      <trkpt lat="-0.033230000" lon="-78.477490000">
        <ele>3454.00</ele>
        <time>-000-11-29T 21:00:0Z</time>
      </trkpt>
      <trkpt lat="-0.032800000" lon="-78.477670000">
        <ele>3456.00</ele>
        <time>-000-11-29T 21:00:0Z</time>
      </trkpt>
      <trkpt lat="-0.032220000" lon="-78.477860000">
        <ele>3456.00</ele>
        <time>-000-11-29T 21:00:0Z</time>
      </trkpt>
      <trkpt lat="-0.031890000" lon="-78.477910000">
        <ele>3444.00</ele>
        <time>-000-11-29T 21:00:0Z</time>
      </trkpt>
      <trkpt lat="-0.031290000" lon="-78.477830000">
        <ele>3421.00</ele>
        <time>-000-11-29T 21:00:0Z</time>
      </trkpt>
      <trkpt lat="-0.030680000" lon="-78.477430000">
        <ele>3421.00</ele>
        <time>-000-11-29T 21:00:0Z</time>
      </trkpt>
      <trkpt lat="-0.030150000" lon="-78.477200000">
        <ele>3407.00</ele>
        <time>-000-11-29T 21:00:0Z</time>
      </trkpt>
      <trkpt lat="-0.029940000" lon="-78.477020000">
        <ele>3398.00</ele>
        <time>-000-11-29T 21:00:0Z</time>
      </trkpt>
      <trkpt lat="-0.029780000" lon="-78.476770000">
        <ele>3390.00</ele>
        <time>-000-11-29T 21:00:0Z</time>
      </trkpt>
      <trkpt lat="-0.029730000" lon="-78.476580000">
        <ele>3387.00</ele>
        <time>-000-11-29T 21:00:0Z</time>
      </trkpt>
      <trkpt lat="-0.029650000" lon="-78.476260000">
        <ele>3382.00</ele>
        <time>-000-11-29T 21:00:0Z</time>
      </trkpt>
      <trkpt lat="-0.029220000" lon="-78.475790000">
        <ele>3371.00</ele>
        <time>-000-11-29T 21:00:0Z</time>
      </trkpt>
      <trkpt lat="-0.028780000" lon="-78.475480000">
        <ele>3362.00</ele>
        <time>-000-11-29T 21:00:0Z</time>
      </trkpt>
      <trkpt lat="-0.028340000" lon="-78.475110000">
        <ele>3353.00</ele>
        <time>-000-11-29T 21:00:0Z</time>
      </trkpt>
      <trkpt lat="-0.028200000" lon="-78.475130000">
        <ele>3351.00</ele>
        <time>-000-11-29T 21:00:0Z</time>
      </trkpt>
      <trkpt lat="-0.028210000" lon="-78.475250000">
        <ele>3349.00</ele>
        <time>-000-11-29T 21:00:0Z</time>
      </trkpt>
      <trkpt lat="-0.028280000" lon="-78.475290000">
        <ele>3349.00</ele>
        <time>-000-11-29T 21:00:0Z</time>
      </trkpt>
      <trkpt lat="-0.028390000" lon="-78.475290000">
        <ele>3352.00</ele>
        <time>-000-11-29T 21:00:0Z</time>
      </trkpt>
      <trkpt lat="-0.028750000" lon="-78.475500000">
        <ele>3363.00</ele>
        <time>-000-11-29T 21:00:0Z</time>
      </trkpt>
      <trkpt lat="-0.029170000" lon="-78.475830000">
        <ele>3377.00</ele>
        <time>-000-11-29T 21:00:0Z</time>
      </trkpt>
      <trkpt lat="-0.029590000" lon="-78.476260000">
        <ele>3392.00</ele>
        <time>-000-11-29T 21:00:0Z</time>
      </trkpt>
      <trkpt lat="-0.029680000" lon="-78.476580000">
        <ele>3392.00</ele>
        <time>-000-11-29T 21:00:0Z</time>
      </trkpt>
      <trkpt lat="-0.029710000" lon="-78.476780000">
        <ele>3391.00</ele>
        <time>-000-11-29T 21:00:0Z</time>
      </trkpt>
      <trkpt lat="-0.029990000" lon="-78.477110000">
        <ele>3387.00</ele>
        <time>-000-11-29T 21:00:0Z</time>
      </trkpt>
      <trkpt lat="-0.030290000" lon="-78.477300000">
        <ele>3398.00</ele>
        <time>-000-11-29T 21:00:0Z</time>
      </trkpt>
      <trkpt lat="-0.030690000" lon="-78.477480000">
        <ele>3413.00</ele>
        <time>-000-11-29T 21:00:0Z</time>
      </trkpt>
      <trkpt lat="-0.031220000" lon="-78.477830000">
        <ele>3426.00</ele>
        <time>-000-11-29T 21:00:0Z</time>
      </trkpt>
      <trkpt lat="-0.031730000" lon="-78.477970000">
        <ele>3436.00</ele>
        <time>-000-11-29T 21:00:0Z</time>
      </trkpt>
      <trkpt lat="-0.032090000" lon="-78.477940000">
        <ele>3447.00</ele>
        <time>-000-11-29T 21:00:0Z</time>
      </trkpt>
      <trkpt lat="-0.032530000" lon="-78.477800000">
        <ele>3459.00</ele>
        <time>-000-11-29T 21:00:0Z</time>
      </trkpt>
      <trkpt lat="-0.033160000" lon="-78.477570000">
        <ele>3454.00</ele>
        <time>-000-11-29T 21:00:0Z</time>
      </trkpt>
      <trkpt lat="-0.033940000" lon="-78.477070000">
        <ele>3451.00</ele>
        <time>-000-11-29T 21:00:0Z</time>
      </trkpt>
      <trkpt lat="-0.034160000" lon="-78.477100000">
        <ele>3451.00</ele>
        <time>-000-11-29T 21:00:0Z</time>
      </trkpt>
      <trkpt lat="-0.035060000" lon="-78.477350000">
        <ele>3456.00</ele>
        <time>-000-11-29T 21:00:0Z</time>
      </trkpt>
      <trkpt lat="-0.035560000" lon="-78.477500000">
        <ele>3454.00</ele>
        <time>-000-11-29T 21:00:0Z</time>
      </trkpt>
      <trkpt lat="-0.036310000" lon="-78.477760000">
        <ele>3458.00</ele>
        <time>-000-11-29T 21:00:0Z</time>
      </trkpt>
      <trkpt lat="-0.036660000" lon="-78.478000000">
        <ele>3461.00</ele>
        <time>-000-11-29T 21:00:0Z</time>
      </trkpt>
      <trkpt lat="-0.036990000" lon="-78.478010000">
        <ele>3460.00</ele>
        <time>-000-11-29T 21:00:0Z</time>
      </trkpt>
      <trkpt lat="-0.037260000" lon="-78.478170000">
        <ele>3458.00</ele>
        <time>-000-11-29T 21:00:0Z</time>
      </trkpt>
      <trkpt lat="-0.037590000" lon="-78.478440000">
        <ele>3464.00</ele>
        <time>-000-11-29T 21:00:0Z</time>
      </trkpt>
      <trkpt lat="-0.037850000" lon="-78.478640000">
        <ele>3474.00</ele>
        <time>-000-11-29T 21:00:0Z</time>
      </trkpt>
      <trkpt lat="-0.037990000" lon="-78.478710000">
        <ele>3478.00</ele>
        <time>-000-11-29T 21:00:0Z</time>
      </trkpt>
      <trkpt lat="-0.038100000" lon="-78.478830000">
        <ele>3483.00</ele>
        <time>-000-11-29T 21:00:0Z</time>
      </trkpt>
      <trkpt lat="-0.038230000" lon="-78.478950000">
        <ele>3481.00</ele>
        <time>-000-11-29T 21:00:0Z</time>
      </trkpt>
      <trkpt lat="-0.038400000" lon="-78.478990000">
        <ele>3479.00</ele>
        <time>-000-11-29T 21:00:0Z</time>
      </trkpt>
      <trkpt lat="-0.038870000" lon="-78.479080000">
        <ele>3473.00</ele>
        <time>-000-11-29T 21:00:0Z</time>
      </trkpt>
      <trkpt lat="-0.039180000" lon="-78.479160000">
        <ele>3474.00</ele>
        <time>-000-11-29T 21:00:0Z</time>
      </trkpt>
      <trkpt lat="-0.039590000" lon="-78.479420000">
        <ele>3478.00</ele>
        <time>-000-11-29T 21:00:0Z</time>
      </trkpt>
      <trkpt lat="-0.040200000" lon="-78.479890000">
        <ele>3472.00</ele>
        <time>-000-11-29T 21:00:0Z</time>
      </trkpt>
      <trkpt lat="-0.040740000" lon="-78.480080000">
        <ele>3454.00</ele>
        <time>-000-11-29T 21:00:0Z</time>
      </trkpt>
      <trkpt lat="-0.041380000" lon="-78.480230000">
        <ele>3421.00</ele>
        <time>-000-11-29T 21:00:0Z</time>
      </trkpt>
      <trkpt lat="-0.041700000" lon="-78.480260000">
        <ele>3421.00</ele>
        <time>-000-11-29T 21:00:0Z</time>
      </trkpt>
      <trkpt lat="-0.042100000" lon="-78.480500000">
        <ele>3421.00</ele>
        <time>-000-11-29T 21:00:0Z</time>
      </trkpt>
      <trkpt lat="-0.042330000" lon="-78.480720000">
        <ele>3413.00</ele>
        <time>-000-11-29T 21:00:0Z</time>
      </trkpt>
      <trkpt lat="-0.042490000" lon="-78.480890000">
        <ele>3403.00</ele>
        <time>-000-11-29T 21:00:0Z</time>
      </trkpt>
      <trkpt lat="-0.042910000" lon="-78.481160000">
        <ele>3389.00</ele>
        <time>-000-11-29T 21:00:0Z</time>
      </trkpt>
      <trkpt lat="-0.043240000" lon="-78.481420000">
        <ele>3404.00</ele>
        <time>-000-11-29T 21:00:0Z</time>
      </trkpt>
      <trkpt lat="-0.043420000" lon="-78.481570000">
        <ele>3413.00</ele>
        <time>-000-11-29T 21:00:0Z</time>
      </trkpt>
      <trkpt lat="-0.043510000" lon="-78.481620000">
        <ele>3417.00</ele>
        <time>-000-11-29T 21:00:0Z</time>
      </trkpt>
      <trkpt lat="-0.043580000" lon="-78.481590000">
        <ele>3419.00</ele>
        <time>-000-11-29T 21:00:0Z</time>
      </trkpt>
      <trkpt lat="-0.043970000" lon="-78.481780000">
        <ele>3410.00</ele>
        <time>-000-11-29T 21:00:0Z</time>
      </trkpt>
      <trkpt lat="-0.043950000" lon="-78.481920000">
        <ele>3407.00</ele>
        <time>-000-11-29T 21:00:0Z</time>
      </trkpt>
      <trkpt lat="-0.044510000" lon="-78.482200000">
        <ele>3407.00</ele>
        <time>-000-11-29T 21:00:0Z</time>
      </trkpt>
      <trkpt lat="-0.044710000" lon="-78.482320000">
        <ele>3412.00</ele>
        <time>-000-11-29T 21:00:0Z</time>
      </trkpt>
      <trkpt lat="-0.045000000" lon="-78.482490000">
        <ele>3420.00</ele>
        <time>-000-11-29T 21:00:0Z</time>
      </trkpt>
      <trkpt lat="-0.045330000" lon="-78.482700000">
        <ele>3411.00</ele>
        <time>-000-11-29T 21:00:0Z</time>
      </trkpt>
      <trkpt lat="-0.045560000" lon="-78.482800000">
        <ele>3404.00</ele>
        <time>-000-11-29T 21:00:0Z</time>
      </trkpt>
      <trkpt lat="-0.045780000" lon="-78.482900000">
        <ele>3398.00</ele>
        <time>-000-11-29T 21:00:0Z</time>
      </trkpt>
      <trkpt lat="-0.045880000" lon="-78.482990000">
        <ele>3390.00</ele>
        <time>-000-11-29T 21:00:0Z</time>
      </trkpt>
      <trkpt lat="-0.046160000" lon="-78.483360000">
        <ele>3360.00</ele>
        <time>-000-11-29T 21:00:0Z</time>
      </trkpt>
      <trkpt lat="-0.046160000" lon="-78.483370000">
        <ele>3360.00</ele>
        <time>-000-11-29T 21:00:0Z</time>
      </trkpt>
      <trkpt lat="-0.046630000" lon="-78.483830000">
        <ele>3348.00</ele>
        <time>-000-11-29T 21:00:0Z</time>
      </trkpt>
      <trkpt lat="-0.046940000" lon="-78.484120000">
        <ele>3360.00</ele>
        <time>-000-11-29T 21:00:0Z</time>
      </trkpt>
      <trkpt lat="-0.047200000" lon="-78.484430000">
        <ele>3367.00</ele>
        <time>-000-11-29T 21:00:0Z</time>
      </trkpt>
      <trkpt lat="-0.047630000" lon="-78.484880000">
        <ele>3371.00</ele>
        <time>-000-11-29T 21:00:0Z</time>
      </trkpt>
      <trkpt lat="-0.047770000" lon="-78.485050000">
        <ele>3371.00</ele>
        <time>-000-11-29T 21:00:0Z</time>
      </trkpt>
      <trkpt lat="-0.048130000" lon="-78.485490000">
        <ele>3368.00</ele>
        <time>-000-11-29T 21:00:0Z</time>
      </trkpt>
      <trkpt lat="-0.048360000" lon="-78.485690000">
        <ele>3361.00</ele>
        <time>-000-11-29T 21:00:0Z</time>
      </trkpt>
      <trkpt lat="-0.048420000" lon="-78.485810000">
        <ele>3356.00</ele>
        <time>-000-11-29T 21:00:0Z</time>
      </trkpt>
      <trkpt lat="-0.048320000" lon="-78.486000000">
        <ele>3348.00</ele>
        <time>-000-11-29T 21:00:0Z</time>
      </trkpt>
      <trkpt lat="-0.048150000" lon="-78.486190000">
        <ele>3338.00</ele>
        <time>-000-11-29T 21:00:0Z</time>
      </trkpt>
      <trkpt lat="-0.047970000" lon="-78.486330000">
        <ele>3332.00</ele>
        <time>-000-11-29T 21:00:0Z</time>
      </trkpt>
      <trkpt lat="-0.047590000" lon="-78.486500000">
        <ele>3325.00</ele>
        <time>-000-11-29T 21:00:0Z</time>
      </trkpt>
      <trkpt lat="-0.047450000" lon="-78.486450000">
        <ele>3322.00</ele>
        <time>-000-11-29T 21:00:0Z</time>
      </trkpt>
      <trkpt lat="-0.047410000" lon="-78.486310000">
        <ele>3320.00</ele>
        <time>-000-11-29T 21:00:0Z</time>
      </trkpt>
      <trkpt lat="-0.047420000" lon="-78.486060000">
        <ele>3311.00</ele>
        <time>-000-11-29T 21:00:0Z</time>
      </trkpt>
      <trkpt lat="-0.047280000" lon="-78.485600000">
        <ele>3292.00</ele>
        <time>-000-11-29T 21:00:0Z</time>
      </trkpt>
      <trkpt lat="-0.047160000" lon="-78.485410000">
        <ele>3282.00</ele>
        <time>-000-11-29T 21:00:0Z</time>
      </trkpt>
      <trkpt lat="-0.046970000" lon="-78.485160000">
        <ele>3286.00</ele>
        <time>-000-11-29T 21:00:0Z</time>
      </trkpt>
      <trkpt lat="-0.046850000" lon="-78.484970000">
        <ele>3290.00</ele>
        <time>-000-11-29T 21:00:0Z</time>
      </trkpt>
      <trkpt lat="-0.046700000" lon="-78.484950000">
        <ele>3293.00</ele>
        <time>-000-11-29T 21:00:0Z</time>
      </trkpt>
      <trkpt lat="-0.046770000" lon="-78.485100000">
        <ele>3295.00</ele>
        <time>-000-11-29T 21:00:0Z</time>
      </trkpt>
      <trkpt lat="-0.046850000" lon="-78.485420000">
        <ele>3293.00</ele>
        <time>-000-11-29T 21:00:0Z</time>
      </trkpt>
      <trkpt lat="-0.046940000" lon="-78.485650000">
        <ele>3290.00</ele>
        <time>-000-11-29T 21:00:0Z</time>
      </trkpt>
      <trkpt lat="-0.046970000" lon="-78.485870000">
        <ele>3287.00</ele>
        <time>-000-11-29T 21:00:0Z</time>
      </trkpt>
      <trkpt lat="-0.046800000" lon="-78.486210000">
        <ele>3270.00</ele>
        <time>-000-11-29T 21:00:0Z</time>
      </trkpt>
      <trkpt lat="-0.046540000" lon="-78.486600000">
        <ele>3239.00</ele>
        <time>-000-11-29T 21:00:0Z</time>
      </trkpt>
      <trkpt lat="-0.046280000" lon="-78.486890000">
        <ele>3225.00</ele>
        <time>-000-11-29T 21:00:0Z</time>
      </trkpt>
      <trkpt lat="-0.046050000" lon="-78.487130000">
        <ele>3223.00</ele>
        <time>-000-11-29T 21:00:0Z</time>
      </trkpt>
      <trkpt lat="-0.046020000" lon="-78.487230000">
        <ele>3223.00</ele>
        <time>-000-11-29T 21:00:0Z</time>
      </trkpt>
      <trkpt lat="-0.046120000" lon="-78.487340000">
        <ele>3222.00</ele>
        <time>-000-11-29T 21:00:0Z</time>
      </trkpt>
      <trkpt lat="-0.046240000" lon="-78.487460000">
        <ele>3222.00</ele>
        <time>-000-11-29T 21:00:0Z</time>
      </trkpt>
      <trkpt lat="-0.046380000" lon="-78.487670000">
        <ele>3228.00</ele>
        <time>-000-11-29T 21:00:0Z</time>
      </trkpt>
      <trkpt lat="-0.046430000" lon="-78.487860000">
        <ele>3233.00</ele>
        <time>-000-11-29T 21:00:0Z</time>
      </trkpt>
      <trkpt lat="-0.046550000" lon="-78.487990000">
        <ele>3237.00</ele>
        <time>-000-11-29T 21:00:0Z</time>
      </trkpt>
      <trkpt lat="-0.046800000" lon="-78.488170000">
        <ele>3241.00</ele>
        <time>-000-11-29T 21:00:0Z</time>
      </trkpt>
      <trkpt lat="-0.047450000" lon="-78.488660000">
        <ele>3226.00</ele>
        <time>-000-11-29T 21:00:0Z</time>
      </trkpt>
      <trkpt lat="-0.047670000" lon="-78.488820000">
        <ele>3223.00</ele>
        <time>-000-11-29T 21:00:0Z</time>
      </trkpt>
      <trkpt lat="-0.047780000" lon="-78.489010000">
        <ele>3221.00</ele>
        <time>-000-11-29T 21:00:0Z</time>
      </trkpt>
      <trkpt lat="-0.047850000" lon="-78.489140000">
        <ele>3220.00</ele>
        <time>-000-11-29T 21:00:0Z</time>
      </trkpt>
      <trkpt lat="-0.048070000" lon="-78.489220000">
        <ele>3218.00</ele>
        <time>-000-11-29T 21:00:0Z</time>
      </trkpt>
      <trkpt lat="-0.048200000" lon="-78.489340000">
        <ele>3216.00</ele>
        <time>-000-11-29T 21:00:0Z</time>
      </trkpt>
      <trkpt lat="-0.048270000" lon="-78.489440000">
        <ele>3215.00</ele>
        <time>-000-11-29T 21:00:0Z</time>
      </trkpt>
      <trkpt lat="-0.048370000" lon="-78.489570000">
        <ele>3213.00</ele>
        <time>-000-11-29T 21:00:0Z</time>
      </trkpt>
      <trkpt lat="-0.048510000" lon="-78.489850000">
        <ele>3210.00</ele>
        <time>-000-11-29T 21:00:0Z</time>
      </trkpt>
      <trkpt lat="-0.048590000" lon="-78.490020000">
        <ele>3210.00</ele>
        <time>-000-11-29T 21:00:0Z</time>
      </trkpt>
      <trkpt lat="-0.048690000" lon="-78.490080000">
        <ele>3215.00</ele>
        <time>-000-11-29T 21:00:0Z</time>
      </trkpt>
      <trkpt lat="-0.048860000" lon="-78.490200000">
        <ele>3223.00</ele>
        <time>-000-11-29T 21:00:0Z</time>
      </trkpt>
      <trkpt lat="-0.049070000" lon="-78.490290000">
        <ele>3232.00</ele>
        <time>-000-11-29T 21:00:0Z</time>
      </trkpt>
      <trkpt lat="-0.049180000" lon="-78.490330000">
        <ele>3237.00</ele>
        <time>-000-11-29T 21:00:0Z</time>
      </trkpt>
      <trkpt lat="-0.049350000" lon="-78.490410000">
        <ele>3245.00</ele>
        <time>-000-11-29T 21:00:0Z</time>
      </trkpt>
      <trkpt lat="-0.049580000" lon="-78.490530000">
        <ele>3250.00</ele>
        <time>-000-11-29T 21:00:0Z</time>
      </trkpt>
      <trkpt lat="-0.049700000" lon="-78.490630000">
        <ele>3252.00</ele>
        <time>-000-11-29T 21:00:0Z</time>
      </trkpt>
      <trkpt lat="-0.049780000" lon="-78.490810000">
        <ele>3256.00</ele>
        <time>-000-11-29T 21:00:0Z</time>
      </trkpt>
      <trkpt lat="-0.049810000" lon="-78.491270000">
        <ele>3265.00</ele>
        <time>-000-11-29T 21:00:0Z</time>
      </trkpt>
      <trkpt lat="-0.049810000" lon="-78.491410000">
        <ele>3269.00</ele>
        <time>-000-11-29T 21:00:0Z</time>
      </trkpt>
      <trkpt lat="-0.049790000" lon="-78.491710000">
        <ele>3277.00</ele>
        <time>-000-11-29T 21:00:0Z</time>
      </trkpt>
      <trkpt lat="-0.049700000" lon="-78.492140000">
        <ele>3279.00</ele>
        <time>-000-11-29T 21:00:0Z</time>
      </trkpt>
      <trkpt lat="-0.050150000" lon="-78.491820000">
        <ele>3260.00</ele>
        <time>-000-11-29T 21:00:0Z</time>
      </trkpt>
      <trkpt lat="-0.050320000" lon="-78.491990000">
        <ele>3252.00</ele>
        <time>-000-11-29T 21:00:0Z</time>
      </trkpt>
      <trkpt lat="-0.050400000" lon="-78.492080000">
        <ele>3250.00</ele>
        <time>-000-11-29T 21:00:0Z</time>
      </trkpt>
      <trkpt lat="-0.050500000" lon="-78.492180000">
        <ele>3248.00</ele>
        <time>-000-11-29T 21:00:0Z</time>
      </trkpt>
      <trkpt lat="-0.050630000" lon="-78.492250000">
        <ele>3246.00</ele>
        <time>-000-11-29T 21:00:0Z</time>
      </trkpt>
      <trkpt lat="-0.050720000" lon="-78.492390000">
        <ele>3244.00</ele>
        <time>-000-11-29T 21:00:0Z</time>
      </trkpt>
      <trkpt lat="-0.050740000" lon="-78.492500000">
        <ele>3242.00</ele>
        <time>-000-11-29T 21:00:0Z</time>
      </trkpt>
      <trkpt lat="-0.050640000" lon="-78.492730000">
        <ele>3238.00</ele>
        <time>-000-11-29T 21:00:0Z</time>
      </trkpt>
      <trkpt lat="-0.050610000" lon="-78.492940000">
        <ele>3235.00</ele>
        <time>-000-11-29T 21:00:0Z</time>
      </trkpt>
      <trkpt lat="-0.050670000" lon="-78.493200000">
        <ele>3231.00</ele>
        <time>-000-11-29T 21:00:0Z</time>
      </trkpt>
      <trkpt lat="-0.050760000" lon="-78.493420000">
        <ele>3227.00</ele>
        <time>-000-11-29T 21:00:0Z</time>
      </trkpt>
      <trkpt lat="-0.050860000" lon="-78.493630000">
        <ele>3226.00</ele>
        <time>-000-11-29T 21:00:0Z</time>
      </trkpt>
      <trkpt lat="-0.050920000" lon="-78.493740000">
        <ele>3227.00</ele>
        <time>-000-11-29T 21:00:0Z</time>
      </trkpt>
      <trkpt lat="-0.051010000" lon="-78.493910000">
        <ele>3228.00</ele>
        <time>-000-11-29T 21:00:0Z</time>
      </trkpt>
      <trkpt lat="-0.051090000" lon="-78.494030000">
        <ele>3228.00</ele>
        <time>-000-11-29T 21:00:0Z</time>
      </trkpt>
      <trkpt lat="-0.051160000" lon="-78.494130000">
        <ele>3229.00</ele>
        <time>-000-11-29T 21:00:0Z</time>
      </trkpt>
      <trkpt lat="-0.051270000" lon="-78.494230000">
        <ele>3229.00</ele>
        <time>-000-11-29T 21:00:0Z</time>
      </trkpt>
      <trkpt lat="-0.051430000" lon="-78.494290000">
        <ele>3225.00</ele>
        <time>-000-11-29T 21:00:0Z</time>
      </trkpt>
      <trkpt lat="-0.051570000" lon="-78.494360000">
        <ele>3220.00</ele>
        <time>-000-11-29T 21:00:0Z</time>
      </trkpt>
      <trkpt lat="-0.051760000" lon="-78.494450000">
        <ele>3213.00</ele>
        <time>-000-11-29T 21:00:0Z</time>
      </trkpt>
      <trkpt lat="-0.051880000" lon="-78.494530000">
        <ele>3209.00</ele>
        <time>-000-11-29T 21:00:0Z</time>
      </trkpt>
      <trkpt lat="-0.052050000" lon="-78.494530000">
        <ele>3203.00</ele>
        <time>-000-11-29T 21:00:0Z</time>
      </trkpt>
      <trkpt lat="-0.052370000" lon="-78.494620000">
        <ele>3193.00</ele>
        <time>-000-11-29T 21:00:0Z</time>
      </trkpt>
      <trkpt lat="-0.052610000" lon="-78.494680000">
        <ele>3185.00</ele>
        <time>-000-11-29T 21:00:0Z</time>
      </trkpt>
      <trkpt lat="-0.052840000" lon="-78.494800000">
        <ele>3177.00</ele>
        <time>-000-11-29T 21:00:0Z</time>
      </trkpt>
      <trkpt lat="-0.053090000" lon="-78.494970000">
        <ele>3174.00</ele>
        <time>-000-11-29T 21:00:0Z</time>
      </trkpt>
      <trkpt lat="-0.053300000" lon="-78.495110000">
        <ele>3177.00</ele>
        <time>-000-11-29T 21:00:0Z</time>
      </trkpt>
      <trkpt lat="-0.053630000" lon="-78.495260000">
        <ele>3180.00</ele>
        <time>-000-11-29T 21:00:0Z</time>
      </trkpt>
      <trkpt lat="-0.053820000" lon="-78.495320000">
        <ele>3179.00</ele>
        <time>-000-11-29T 21:00:0Z</time>
      </trkpt>
      <trkpt lat="-0.054340000" lon="-78.495530000">
        <ele>3161.00</ele>
        <time>-000-11-29T 21:00:0Z</time>
      </trkpt>
      <trkpt lat="-0.054690000" lon="-78.495700000">
        <ele>3153.00</ele>
        <time>-000-11-29T 21:00:0Z</time>
      </trkpt>
      <trkpt lat="-0.055260000" lon="-78.495950000">
        <ele>3156.00</ele>
        <time>-000-11-29T 21:00:0Z</time>
      </trkpt>
      <trkpt lat="-0.055650000" lon="-78.496160000">
        <ele>3154.00</ele>
        <time>-000-11-29T 21:00:0Z</time>
      </trkpt>
      <trkpt lat="-0.056860000" lon="-78.496890000">
        <ele>3133.00</ele>
        <time>-000-11-29T 21:00:0Z</time>
      </trkpt>
      <trkpt lat="-0.057700000" lon="-78.497330000">
        <ele>3111.00</ele>
        <time>-000-11-29T 21:00:0Z</time>
      </trkpt>
      <trkpt lat="-0.058420000" lon="-78.497700000">
        <ele>3098.00</ele>
        <time>-000-11-29T 21:00:0Z</time>
      </trkpt>
      <trkpt lat="-0.059030000" lon="-78.497860000">
        <ele>3086.00</ele>
        <time>-000-11-29T 21:00:0Z</time>
      </trkpt>
      <trkpt lat="-0.059590000" lon="-78.498200000">
        <ele>3076.00</ele>
        <time>-000-11-29T 21:00:0Z</time>
      </trkpt>
      <trkpt lat="-0.060270000" lon="-78.498620000">
        <ele>3065.00</ele>
        <time>-000-11-29T 21:00:0Z</time>
      </trkpt>
      <trkpt lat="-0.060920000" lon="-78.498980000">
        <ele>3050.00</ele>
        <time>-000-11-29T 21:00:0Z</time>
      </trkpt>
      <trkpt lat="-0.061480000" lon="-78.499290000">
        <ele>3042.00</ele>
        <time>-000-11-29T 21:00:0Z</time>
      </trkpt>
      <trkpt lat="-0.061910000" lon="-78.499480000">
        <ele>3039.00</ele>
        <time>-000-11-29T 21:00:0Z</time>
      </trkpt>
      <trkpt lat="-0.062170000" lon="-78.499840000">
        <ele>3039.00</ele>
        <time>-000-11-29T 21:00:0Z</time>
      </trkpt>
      <trkpt lat="-0.062330000" lon="-78.500230000">
        <ele>3038.00</ele>
        <time>-000-11-29T 21:00:0Z</time>
      </trkpt>
      <trkpt lat="-0.062710000" lon="-78.500630000">
        <ele>3033.00</ele>
        <time>-000-11-29T 21:00:0Z</time>
      </trkpt>
      <trkpt lat="-0.063180000" lon="-78.501090000">
        <ele>3024.00</ele>
        <time>-000-11-29T 21:00:0Z</time>
      </trkpt>
      <trkpt lat="-0.063710000" lon="-78.501400000">
        <ele>3014.00</ele>
        <time>-000-11-29T 21:00:0Z</time>
      </trkpt>
      <trkpt lat="-0.064070000" lon="-78.501740000">
        <ele>3003.00</ele>
        <time>-000-11-29T 21:00:0Z</time>
      </trkpt>
      <trkpt lat="-0.064550000" lon="-78.501750000">
        <ele>2998.00</ele>
        <time>-000-11-29T 21:00:0Z</time>
      </trkpt>
      <trkpt lat="-0.065060000" lon="-78.501440000">
        <ele>2998.00</ele>
        <time>-000-11-29T 21:00:0Z</time>
      </trkpt>
      <trkpt lat="-0.065470000" lon="-78.501120000">
        <ele>2992.00</ele>
        <time>-000-11-29T 21:00:0Z</time>
      </trkpt>
      <trkpt lat="-0.065720000" lon="-78.501050000">
        <ele>2989.00</ele>
        <time>-000-11-29T 21:00:0Z</time>
      </trkpt>
      <trkpt lat="-0.066070000" lon="-78.501160000">
        <ele>2984.00</ele>
        <time>-000-11-29T 21:00:0Z</time>
      </trkpt>
      <trkpt lat="-0.066350000" lon="-78.501380000">
        <ele>2979.00</ele>
        <time>-000-11-29T 21:00:0Z</time>
      </trkpt>
      <trkpt lat="-0.066650000" lon="-78.501620000">
        <ele>2974.00</ele>
        <time>-000-11-29T 21:00:0Z</time>
      </trkpt>
      <trkpt lat="-0.066800000" lon="-78.501780000">
        <ele>2972.00</ele>
        <time>-000-11-29T 21:00:0Z</time>
      </trkpt>
      <trkpt lat="-0.067070000" lon="-78.501700000">
        <ele>2970.00</ele>
        <time>-000-11-29T 21:00:0Z</time>
      </trkpt>
      <trkpt lat="-0.067420000" lon="-78.501420000">
        <ele>2966.00</ele>
        <time>-000-11-29T 21:00:0Z</time>
      </trkpt>
      <trkpt lat="-0.067710000" lon="-78.501250000">
        <ele>2963.00</ele>
        <time>-000-11-29T 21:00:0Z</time>
      </trkpt>
      <trkpt lat="-0.068150000" lon="-78.501190000">
        <ele>2959.00</ele>
        <time>-000-11-29T 21:00:0Z</time>
      </trkpt>
      <trkpt lat="-0.068360000" lon="-78.501270000">
        <ele>2960.00</ele>
        <time>-000-11-29T 21:00:0Z</time>
      </trkpt>
      <trkpt lat="-0.068660000" lon="-78.501140000">
        <ele>2963.00</ele>
        <time>-000-11-29T 21:00:0Z</time>
      </trkpt>
      <trkpt lat="-0.068840000" lon="-78.500960000">
        <ele>2965.00</ele>
        <time>-000-11-29T 21:00:0Z</time>
      </trkpt>
      <trkpt lat="-0.069180000" lon="-78.500570000">
        <ele>2962.00</ele>
        <time>-000-11-29T 21:00:0Z</time>
      </trkpt>
      <trkpt lat="-0.069420000" lon="-78.500240000">
        <ele>2959.00</ele>
        <time>-000-11-29T 21:00:0Z</time>
      </trkpt>
      <trkpt lat="-0.069780000" lon="-78.499890000">
        <ele>2956.00</ele>
        <time>-000-11-29T 21:00:0Z</time>
      </trkpt>
      <trkpt lat="-0.069890000" lon="-78.499430000">
        <ele>2953.00</ele>
        <time>-000-11-29T 21:00:0Z</time>
      </trkpt>
      <trkpt lat="-0.070010000" lon="-78.499070000">
        <ele>2948.00</ele>
        <time>-000-11-29T 21:00:0Z</time>
      </trkpt>
      <trkpt lat="-0.070160000" lon="-78.498420000">
        <ele>2940.00</ele>
        <time>-000-11-29T 21:00:0Z</time>
      </trkpt>
      <trkpt lat="-0.070120000" lon="-78.498000000">
        <ele>2933.00</ele>
        <time>-000-11-29T 21:00:0Z</time>
      </trkpt>
      <trkpt lat="-0.070020000" lon="-78.497660000">
        <ele>2930.00</ele>
        <time>-000-11-29T 21:00:0Z</time>
      </trkpt>
      <trkpt lat="-0.069870000" lon="-78.497450000">
        <ele>2937.00</ele>
        <time>-000-11-29T 21:00:0Z</time>
      </trkpt>
      <trkpt lat="-0.069670000" lon="-78.497240000">
        <ele>2945.00</ele>
        <time>-000-11-29T 21:00:0Z</time>
      </trkpt>
      <trkpt lat="-0.069520000" lon="-78.497040000">
        <ele>2952.00</ele>
        <time>-000-11-29T 21:00:0Z</time>
      </trkpt>
      <trkpt lat="-0.069340000" lon="-78.496750000">
        <ele>2949.00</ele>
        <time>-000-11-29T 21:00:0Z</time>
      </trkpt>
      <trkpt lat="-0.069450000" lon="-78.496810000">
        <ele>2947.00</ele>
        <time>-000-11-29T 21:00:0Z</time>
      </trkpt>
      <trkpt lat="-0.069640000" lon="-78.497050000">
        <ele>2942.00</ele>
        <time>-000-11-29T 21:00:0Z</time>
      </trkpt>
      <trkpt lat="-0.069870000" lon="-78.497110000">
        <ele>2936.00</ele>
        <time>-000-11-29T 21:00:0Z</time>
      </trkpt>
      <trkpt lat="-0.070090000" lon="-78.497110000">
        <ele>2927.00</ele>
        <time>-000-11-29T 21:00:0Z</time>
      </trkpt>
      <trkpt lat="-0.070300000" lon="-78.497170000">
        <ele>2917.00</ele>
        <time>-000-11-29T 21:00:0Z</time>
      </trkpt>
      <trkpt lat="-0.070560000" lon="-78.497270000">
        <ele>2905.00</ele>
        <time>-000-11-29T 21:00:0Z</time>
      </trkpt>
      <trkpt lat="-0.070760000" lon="-78.497370000">
        <ele>2900.00</ele>
        <time>-000-11-29T 21:00:0Z</time>
      </trkpt>
      <trkpt lat="-0.070960000" lon="-78.497480000">
        <ele>2901.00</ele>
        <time>-000-11-29T 21:00:0Z</time>
      </trkpt>
      <trkpt lat="-0.071140000" lon="-78.497640000">
        <ele>2903.00</ele>
        <time>-000-11-29T 21:00:0Z</time>
      </trkpt>
      <trkpt lat="-0.071390000" lon="-78.497900000">
        <ele>2903.00</ele>
        <time>-000-11-29T 21:00:0Z</time>
      </trkpt>
      <trkpt lat="-0.071640000" lon="-78.498190000">
        <ele>2889.00</ele>
        <time>-000-11-29T 21:00:0Z</time>
      </trkpt>
      <trkpt lat="-0.071800000" lon="-78.498320000">
        <ele>2882.00</ele>
        <time>-000-11-29T 21:00:0Z</time>
      </trkpt>
      <trkpt lat="-0.072160000" lon="-78.498280000">
        <ele>2869.00</ele>
        <time>-000-11-29T 21:00:0Z</time>
      </trkpt>
      <trkpt lat="-0.072590000" lon="-78.498070000">
        <ele>2849.00</ele>
        <time>-000-11-29T 21:00:0Z</time>
      </trkpt>
      <trkpt lat="-0.072850000" lon="-78.497900000">
        <ele>2836.00</ele>
        <time>-000-11-29T 21:00:0Z</time>
      </trkpt>
      <trkpt lat="-0.072890000" lon="-78.497890000">
        <ele>2835.00</ele>
        <time>-000-11-29T 21:00:0Z</time>
      </trkpt>
      <trkpt lat="-0.072930000" lon="-78.497890000">
        <ele>2834.00</ele>
        <time>-000-11-29T 21:00:0Z</time>
      </trkpt>
      <trkpt lat="-0.073370000" lon="-78.497640000">
        <ele>2820.00</ele>
        <time>-000-11-29T 21:00:0Z</time>
      </trkpt>
      <trkpt lat="-0.073380000" lon="-78.497640000">
        <ele>2820.00</ele>
        <time>-000-11-29T 21:00:0Z</time>
      </trkpt>
      <trkpt lat="-0.073560000" lon="-78.497500000">
        <ele>2814.00</ele>
        <time>-000-11-29T 21:00:0Z</time>
      </trkpt>
      <trkpt lat="-0.073940000" lon="-78.497380000">
        <ele>2810.00</ele>
        <time>-000-11-29T 21:00:0Z</time>
      </trkpt>
      <trkpt lat="-0.074440000" lon="-78.497400000">
        <ele>2808.00</ele>
        <time>-000-11-29T 21:00:0Z</time>
      </trkpt>
      <trkpt lat="-0.074890000" lon="-78.497200000">
        <ele>2807.00</ele>
        <time>-000-11-29T 21:00:0Z</time>
      </trkpt>
      <trkpt lat="-0.075380000" lon="-78.497000000">
        <ele>2805.00</ele>
        <time>-000-11-29T 21:00:0Z</time>
      </trkpt>
      <trkpt lat="-0.075810000" lon="-78.496820000">
        <ele>2798.00</ele>
        <time>-000-11-29T 21:00:0Z</time>
      </trkpt>
      <trkpt lat="-0.075830000" lon="-78.496820000">
        <ele>2798.00</ele>
        <time>-000-11-29T 21:00:0Z</time>
      </trkpt>
      <trkpt lat="-0.076300000" lon="-78.496640000">
        <ele>2792.00</ele>
        <time>-000-11-29T 21:00:0Z</time>
      </trkpt>
      <trkpt lat="-0.076500000" lon="-78.496480000">
        <ele>2790.00</ele>
        <time>-000-11-29T 21:00:0Z</time>
      </trkpt>
      <trkpt lat="-0.076760000" lon="-78.496420000">
        <ele>2789.00</ele>
        <time>-000-11-29T 21:00:0Z</time>
      </trkpt>
      <trkpt lat="-0.077140000" lon="-78.496530000">
        <ele>2784.00</ele>
        <time>-000-11-29T 21:00:0Z</time>
      </trkpt>
      <trkpt lat="-0.077280000" lon="-78.496630000">
        <ele>2780.00</ele>
        <time>-000-11-29T 21:00:0Z</time>
      </trkpt>
      <trkpt lat="-0.077400000" lon="-78.496720000">
        <ele>2776.00</ele>
        <time>-000-11-29T 21:00:0Z</time>
      </trkpt>
      <trkpt lat="-0.077440000" lon="-78.496900000">
        <ele>2771.00</ele>
        <time>-000-11-29T 21:00:0Z</time>
      </trkpt>
      <trkpt lat="-0.077460000" lon="-78.497330000">
        <ele>2764.00</ele>
        <time>-000-11-29T 21:00:0Z</time>
      </trkpt>
      <trkpt lat="-0.077360000" lon="-78.497680000">
        <ele>2761.00</ele>
        <time>-000-11-29T 21:00:0Z</time>
      </trkpt>
      <trkpt lat="-0.077270000" lon="-78.497920000">
        <ele>2758.00</ele>
        <time>-000-11-29T 21:00:0Z</time>
      </trkpt>
      <trkpt lat="-0.077390000" lon="-78.498100000">
        <ele>2758.00</ele>
        <time>-000-11-29T 21:00:0Z</time>
      </trkpt>
      <trkpt lat="-0.077680000" lon="-78.497840000">
        <ele>2761.00</ele>
        <time>-000-11-29T 21:00:0Z</time>
      </trkpt>
      <trkpt lat="-0.077800000" lon="-78.497620000">
        <ele>2763.00</ele>
        <time>-000-11-29T 21:00:0Z</time>
      </trkpt>
      <trkpt lat="-0.077960000" lon="-78.497330000">
        <ele>2762.00</ele>
        <time>-000-11-29T 21:00:0Z</time>
      </trkpt>
      <trkpt lat="-0.078270000" lon="-78.496980000">
        <ele>2760.00</ele>
        <time>-000-11-29T 21:00:0Z</time>
      </trkpt>
      <trkpt lat="-0.078510000" lon="-78.496350000">
        <ele>2748.00</ele>
        <time>-000-11-29T 21:00:0Z</time>
      </trkpt>
      <trkpt lat="-0.078460000" lon="-78.496020000">
        <ele>2740.00</ele>
        <time>-000-11-29T 21:00:0Z</time>
      </trkpt>
      <trkpt lat="-0.078260000" lon="-78.495800000">
        <ele>2741.00</ele>
        <time>-000-11-29T 21:00:0Z</time>
      </trkpt>
      <trkpt lat="-0.077970000" lon="-78.495810000">
        <ele>2746.00</ele>
        <time>-000-11-29T 21:00:0Z</time>
      </trkpt>
      <trkpt lat="-0.077880000" lon="-78.495410000">
        <ele>2754.00</ele>
        <time>-000-11-29T 21:00:0Z</time>
      </trkpt>
      <trkpt lat="-0.077850000" lon="-78.495130000">
        <ele>2742.00</ele>
        <time>-000-11-29T 21:00:0Z</time>
      </trkpt>
      <trkpt lat="-0.077510000" lon="-78.494970000">
        <ele>2723.00</ele>
        <time>-000-11-29T 21:00:0Z</time>
      </trkpt>
      <trkpt lat="-0.076940000" lon="-78.494870000">
        <ele>2708.00</ele>
        <time>-000-11-29T 21:00:0Z</time>
      </trkpt>
      <trkpt lat="-0.077130000" lon="-78.494640000">
        <ele>2705.00</ele>
        <time>-000-11-29T 21:00:0Z</time>
      </trkpt>
      <trkpt lat="-0.077590000" lon="-78.494850000">
        <ele>2698.00</ele>
        <time>-000-11-29T 21:00:0Z</time>
      </trkpt>
      <trkpt lat="-0.077880000" lon="-78.494710000">
        <ele>2692.00</ele>
        <time>-000-11-29T 21:00:0Z</time>
      </trkpt>
      <trkpt lat="-0.077860000" lon="-78.494420000">
        <ele>2686.00</ele>
        <time>-000-11-29T 21:00:0Z</time>
      </trkpt>
      <trkpt lat="-0.077940000" lon="-78.494280000">
        <ele>2684.00</ele>
        <time>-000-11-29T 21:00:0Z</time>
      </trkpt>
      <trkpt lat="-0.078290000" lon="-78.494370000">
        <ele>2681.00</ele>
        <time>-000-11-29T 21:00:0Z</time>
      </trkpt>
      <trkpt lat="-0.078410000" lon="-78.494470000">
        <ele>2680.00</ele>
        <time>-000-11-29T 21:00:0Z</time>
      </trkpt>
      <trkpt lat="-0.078590000" lon="-78.494750000">
        <ele>2680.00</ele>
        <time>-000-11-29T 21:00:0Z</time>
      </trkpt>
      <trkpt lat="-0.078700000" lon="-78.495000000">
        <ele>2689.00</ele>
        <time>-000-11-29T 21:00:0Z</time>
      </trkpt>
      <trkpt lat="-0.078890000" lon="-78.495250000">
        <ele>2700.00</ele>
        <time>-000-11-29T 21:00:0Z</time>
      </trkpt>
      <trkpt lat="-0.079020000" lon="-78.495420000">
        <ele>2707.00</ele>
        <time>-000-11-29T 21:00:0Z</time>
      </trkpt>
      <trkpt lat="-0.079150000" lon="-78.495660000">
        <ele>2710.00</ele>
        <time>-000-11-29T 21:00:0Z</time>
      </trkpt>
      <trkpt lat="-0.079280000" lon="-78.495930000">
        <ele>2711.00</ele>
        <time>-000-11-29T 21:00:0Z</time>
      </trkpt>
      <trkpt lat="-0.079450000" lon="-78.496220000">
        <ele>2712.00</ele>
        <time>-000-11-29T 21:00:0Z</time>
      </trkpt>
      <trkpt lat="-0.079480000" lon="-78.496620000">
        <ele>2709.00</ele>
        <time>-000-11-29T 21:00:0Z</time>
      </trkpt>
      <trkpt lat="-0.079380000" lon="-78.497040000">
        <ele>2705.00</ele>
        <time>-000-11-29T 21:00:0Z</time>
      </trkpt>
      <trkpt lat="-0.079290000" lon="-78.497350000">
        <ele>2701.00</ele>
        <time>-000-11-29T 21:00:0Z</time>
      </trkpt>
      <trkpt lat="-0.079470000" lon="-78.497390000">
        <ele>2699.00</ele>
        <time>-000-11-29T 21:00:0Z</time>
      </trkpt>
      <trkpt lat="-0.079720000" lon="-78.497160000">
        <ele>2694.00</ele>
        <time>-000-11-29T 21:00:0Z</time>
      </trkpt>
      <trkpt lat="-0.079910000" lon="-78.496920000">
        <ele>2688.00</ele>
        <time>-000-11-29T 21:00:0Z</time>
      </trkpt>
      <trkpt lat="-0.080020000" lon="-78.496650000">
        <ele>2681.00</ele>
        <time>-000-11-29T 21:00:0Z</time>
      </trkpt>
      <trkpt lat="-0.080140000" lon="-78.496270000">
        <ele>2670.00</ele>
        <time>-000-11-29T 21:00:0Z</time>
      </trkpt>
      <trkpt lat="-0.080160000" lon="-78.495970000">
        <ele>2665.00</ele>
        <time>-000-11-29T 21:00:0Z</time>
      </trkpt>
      <trkpt lat="-0.080070000" lon="-78.495690000">
        <ele>2661.00</ele>
        <time>-000-11-29T 21:00:0Z</time>
      </trkpt>
      <trkpt lat="-0.080060000" lon="-78.495180000">
        <ele>2654.00</ele>
        <time>-000-11-29T 21:00:0Z</time>
      </trkpt>
      <trkpt lat="-0.080030000" lon="-78.494780000">
        <ele>2649.00</ele>
        <time>-000-11-29T 21:00:0Z</time>
      </trkpt>
      <trkpt lat="-0.080040000" lon="-78.494490000">
        <ele>2645.00</ele>
        <time>-000-11-29T 21:00:0Z</time>
      </trkpt>
      <trkpt lat="-0.080140000" lon="-78.494410000">
        <ele>2644.00</ele>
        <time>-000-11-29T 21:00:0Z</time>
      </trkpt>
      <trkpt lat="-0.080160000" lon="-78.494560000">
        <ele>2644.00</ele>
        <time>-000-11-29T 21:00:0Z</time>
      </trkpt>
      <trkpt lat="-0.080150000" lon="-78.494790000">
        <ele>2644.00</ele>
        <time>-000-11-29T 21:00:0Z</time>
      </trkpt>
      <trkpt lat="-0.080180000" lon="-78.494990000">
        <ele>2644.00</ele>
        <time>-000-11-29T 21:00:0Z</time>
      </trkpt>
      <trkpt lat="-0.080360000" lon="-78.495040000">
        <ele>2644.00</ele>
        <time>-000-11-29T 21:00:0Z</time>
      </trkpt>
      <trkpt lat="-0.080500000" lon="-78.494730000">
        <ele>2654.00</ele>
        <time>-000-11-29T 21:00:0Z</time>
      </trkpt>
      <trkpt lat="-0.081040000" lon="-78.494820000">
        <ele>2675.00</ele>
        <time>-000-11-29T 21:00:0Z</time>
      </trkpt>
      <trkpt lat="-0.081460000" lon="-78.494970000">
        <ele>2691.00</ele>
        <time>-000-11-29T 21:00:0Z</time>
      </trkpt>
      <trkpt lat="-0.081700000" lon="-78.495060000">
        <ele>2701.00</ele>
        <time>-000-11-29T 21:00:0Z</time>
      </trkpt>
      <trkpt lat="-0.081940000" lon="-78.494820000">
        <ele>2711.00</ele>
        <time>-000-11-29T 21:00:0Z</time>
      </trkpt>
      <trkpt lat="-0.082490000" lon="-78.494520000">
        <ele>2713.00</ele>
        <time>-000-11-29T 21:00:0Z</time>
      </trkpt>
      <trkpt lat="-0.082840000" lon="-78.494340000">
        <ele>2715.00</ele>
        <time>-000-11-29T 21:00:0Z</time>
      </trkpt>
      <trkpt lat="-0.083080000" lon="-78.494260000">
        <ele>2717.00</ele>
        <time>-000-11-29T 21:00:0Z</time>
      </trkpt>
      <trkpt lat="-0.083490000" lon="-78.494300000">
        <ele>2720.00</ele>
        <time>-000-11-29T 21:00:0Z</time>
      </trkpt>
      <trkpt lat="-0.083810000" lon="-78.494330000">
        <ele>2723.00</ele>
        <time>-000-11-29T 21:00:0Z</time>
      </trkpt>
      <trkpt lat="-0.084030000" lon="-78.494430000">
        <ele>2725.00</ele>
        <time>-000-11-29T 21:00:0Z</time>
      </trkpt>
      <trkpt lat="-0.084330000" lon="-78.494610000">
        <ele>2727.00</ele>
        <time>-000-11-29T 21:00:0Z</time>
      </trkpt>
      <trkpt lat="-0.084600000" lon="-78.494510000">
        <ele>2726.00</ele>
        <time>-000-11-29T 21:00:0Z</time>
      </trkpt>
      <trkpt lat="-0.084610000" lon="-78.494510000">
        <ele>2726.00</ele>
        <time>-000-11-29T 21:00:0Z</time>
      </trkpt>
      <trkpt lat="-0.084870000" lon="-78.494340000">
        <ele>2724.00</ele>
        <time>-000-11-29T 21:00:0Z</time>
      </trkpt>
      <trkpt lat="-0.085110000" lon="-78.494210000">
        <ele>2723.00</ele>
        <time>-000-11-29T 21:00:0Z</time>
      </trkpt>
      <trkpt lat="-0.085390000" lon="-78.494230000">
        <ele>2724.00</ele>
        <time>-000-11-29T 21:00:0Z</time>
      </trkpt>
      <trkpt lat="-0.085800000" lon="-78.494270000">
        <ele>2727.00</ele>
        <time>-000-11-29T 21:00:0Z</time>
      </trkpt>
      <trkpt lat="-0.086430000" lon="-78.494420000">
        <ele>2733.00</ele>
        <time>-000-11-29T 21:00:0Z</time>
      </trkpt>
      <trkpt lat="-0.086870000" lon="-78.494520000">
        <ele>2738.00</ele>
        <time>-000-11-29T 21:00:0Z</time>
      </trkpt>
      <trkpt lat="-0.087540000" lon="-78.494600000">
        <ele>2741.00</ele>
        <time>-000-11-29T 21:00:0Z</time>
      </trkpt>
      <trkpt lat="-0.088090000" lon="-78.494700000">
        <ele>2743.00</ele>
        <time>-000-11-29T 21:00:0Z</time>
      </trkpt>
      <trkpt lat="-0.088510000" lon="-78.494820000">
        <ele>2745.00</ele>
        <time>-000-11-29T 21:00:0Z</time>
      </trkpt>
      <trkpt lat="-0.088940000" lon="-78.494950000">
        <ele>2744.00</ele>
        <time>-000-11-29T 21:00:0Z</time>
      </trkpt>
      <trkpt lat="-0.089250000" lon="-78.495040000">
        <ele>2743.00</ele>
        <time>-000-11-29T 21:00:0Z</time>
      </trkpt>
      <trkpt lat="-0.089700000" lon="-78.495140000">
        <ele>2742.00</ele>
        <time>-000-11-29T 21:00:0Z</time>
      </trkpt>
      <trkpt lat="-0.089900000" lon="-78.495230000">
        <ele>2742.00</ele>
        <time>-000-11-29T 21:00:0Z</time>
      </trkpt>
      <trkpt lat="-0.089880000" lon="-78.495390000">
        <ele>2742.00</ele>
        <time>-000-11-29T 21:00:0Z</time>
      </trkpt>
      <trkpt lat="-0.089930000" lon="-78.495390000">
        <ele>2742.00</ele>
        <time>-000-11-29T 21:00:0Z</time>
      </trkpt>
      <trkpt lat="-0.089970000" lon="-78.495380000">
        <ele>2742.00</ele>
        <time>-000-11-29T 21:00:0Z</time>
      </trkpt>
      <trkpt lat="-0.089980000" lon="-78.495380000">
        <ele>2742.00</ele>
        <time>-000-11-29T 21:00:0Z</time>
      </trkpt>
      <trkpt lat="-0.089930000" lon="-78.495390000">
        <ele>2742.00</ele>
        <time>-000-11-29T 21:00:0Z</time>
      </trkpt>
      <trkpt lat="-0.089970000" lon="-78.495440000">
        <ele>2742.00</ele>
        <time>-000-11-29T 21:00:0Z</time>
      </trkpt>
      <trkpt lat="-0.090070000" lon="-78.495730000">
        <ele>2743.00</ele>
        <time>-000-11-29T 21:00:0Z</time>
      </trkpt>
      <trkpt lat="-0.090140000" lon="-78.496270000">
        <ele>2747.00</ele>
        <time>-000-11-29T 21:00:0Z</time>
      </trkpt>
      <trkpt lat="-0.090180000" lon="-78.496550000">
        <ele>2747.00</ele>
        <time>-000-11-29T 21:00:0Z</time>
      </trkpt>
      <trkpt lat="-0.090350000" lon="-78.496760000">
        <ele>2746.00</ele>
        <time>-000-11-29T 21:00:0Z</time>
      </trkpt>
      <trkpt lat="-0.090710000" lon="-78.496920000">
        <ele>2744.00</ele>
        <time>-000-11-29T 21:00:0Z</time>
      </trkpt>
      <trkpt lat="-0.091180000" lon="-78.497140000">
        <ele>2737.00</ele>
        <time>-000-11-29T 21:00:0Z</time>
      </trkpt>
      <trkpt lat="-0.091870000" lon="-78.497580000">
        <ele>2728.00</ele>
        <time>-000-11-29T 21:00:0Z</time>
      </trkpt>
      <trkpt lat="-0.092370000" lon="-78.498090000">
        <ele>2725.00</ele>
        <time>-000-11-29T 21:00:0Z</time>
      </trkpt>
      <trkpt lat="-0.092790000" lon="-78.498690000">
        <ele>2711.00</ele>
        <time>-000-11-29T 21:00:0Z</time>
      </trkpt>
      <trkpt lat="-0.093510000" lon="-78.498120000">
        <ele>2693.00</ele>
        <time>-000-11-29T 21:00:0Z</time>
      </trkpt>
      <trkpt lat="-0.093970000" lon="-78.497740000">
        <ele>2687.00</ele>
        <time>-000-11-29T 21:00:0Z</time>
      </trkpt>
      <trkpt lat="-0.094230000" lon="-78.497630000">
        <ele>2685.00</ele>
        <time>-000-11-29T 21:00:0Z</time>
      </trkpt>
      <trkpt lat="-0.095010000" lon="-78.497580000">
        <ele>2680.00</ele>
        <time>-000-11-29T 21:00:0Z</time>
      </trkpt>
      <trkpt lat="-0.096110000" lon="-78.497630000">
        <ele>2685.00</ele>
        <time>-000-11-29T 21:00:0Z</time>
      </trkpt>
      <trkpt lat="-0.096850000" lon="-78.497610000">
        <ele>2692.00</ele>
        <time>-000-11-29T 21:00:0Z</time>
      </trkpt>
      <trkpt lat="-0.097520000" lon="-78.497550000">
        <ele>2693.00</ele>
        <time>-000-11-29T 21:00:0Z</time>
      </trkpt>
      <trkpt lat="-0.098110000" lon="-78.497450000">
        <ele>2694.00</ele>
        <time>-000-11-29T 21:00:0Z</time>
      </trkpt>
      <trkpt lat="-0.098800000" lon="-78.497330000">
        <ele>2695.00</ele>
        <time>-000-11-29T 21:00:0Z</time>
      </trkpt>
      <trkpt lat="-0.099490000" lon="-78.497210000">
        <ele>2704.00</ele>
        <time>-000-11-29T 21:00:0Z</time>
      </trkpt>
      <trkpt lat="-0.100030000" lon="-78.497180000">
        <ele>2706.00</ele>
        <time>-000-11-29T 21:00:0Z</time>
      </trkpt>
      <trkpt lat="-0.100970000" lon="-78.497260000">
        <ele>2710.00</ele>
        <time>-000-11-29T 21:00:0Z</time>
      </trkpt>
      <trkpt lat="-0.101860000" lon="-78.497350000">
        <ele>2713.00</ele>
        <time>-000-11-29T 21:00:0Z</time>
      </trkpt>
      <trkpt lat="-0.102350000" lon="-78.497380000">
        <ele>2714.00</ele>
        <time>-000-11-29T 21:00:0Z</time>
      </trkpt>
      <trkpt lat="-0.102740000" lon="-78.497460000">
        <ele>2715.00</ele>
        <time>-000-11-29T 21:00:0Z</time>
      </trkpt>
      <trkpt lat="-0.103130000" lon="-78.497580000">
        <ele>2716.00</ele>
        <time>-000-11-29T 21:00:0Z</time>
      </trkpt>
      <trkpt lat="-0.103720000" lon="-78.497630000">
        <ele>2720.00</ele>
        <time>-000-11-29T 21:00:0Z</time>
      </trkpt>
      <trkpt lat="-0.104450000" lon="-78.497680000">
        <ele>2724.00</ele>
        <time>-000-11-29T 21:00:0Z</time>
      </trkpt>
      <trkpt lat="-0.104770000" lon="-78.497720000">
        <ele>2726.00</ele>
        <time>-000-11-29T 21:00:0Z</time>
      </trkpt>
      <trkpt lat="-0.105130000" lon="-78.497650000">
        <ele>2727.00</ele>
        <time>-000-11-29T 21:00:0Z</time>
      </trkpt>
      <trkpt lat="-0.105230000" lon="-78.497650000">
        <ele>2727.00</ele>
        <time>-000-11-29T 21:00:0Z</time>
      </trkpt>
      <trkpt lat="-0.105300000" lon="-78.498550000">
        <ele>2732.00</ele>
        <time>-000-11-29T 21:00:0Z</time>
      </trkpt>
      <trkpt lat="-0.105370000" lon="-78.499400000">
        <ele>2740.00</ele>
        <time>-000-11-29T 21:00:0Z</time>
      </trkpt>
      <trkpt lat="-0.105420000" lon="-78.499890000">
        <ele>2745.00</ele>
        <time>-000-11-29T 21:00:0Z</time>
      </trkpt>
      <trkpt lat="-0.105480000" lon="-78.500060000">
        <ele>2747.00</ele>
        <time>-000-11-29T 21:00:0Z</time>
      </trkpt>
    </trkseg>
  </trk>
</gpx>
